GW2167 Weather Reports


Display with metric or nautical units.
time (UTC)temp
F
wind
direction
speed
MPH
gust
MPH
rain 1hr
in
rain 24hr
in
rain mn
in
humidity
%
barometer
mb
20260506155621 75 225 9.0 18.0 0.00 0.00 0.00 44 999.5
20260506155103 75 224 9.0 18.0 0.00 0.00 0.00 44 999.5
20260506155003 75 221 10.0 18.0 0.00 0.00 0.00 44 999.8
20260506154903 75 218 10.0 18.0 0.00 0.00 0.00 43 999.7
20260506154803 75 217 10.0 18.0 0.00 0.00 0.00 43 999.7
20260506154703 76 217 10.0 18.0 0.00 0.00 0.00 43 999.7
20260506154603 76 214 10.0 18.0 0.00 0.00 0.00 43 999.7
20260506154503 76 213 11.0 18.0 0.00 0.00 0.00 44 999.9
20260506154404 76 214 10.0 18.0 0.00 0.00 0.00 44 999.7
20260506154303 76 212 9.0 17.0 0.00 0.00 0.00 43 999.8
20260506154218 76 210 9.0 17.0 0.00 0.00 0.00 43 999.8
20260506154203 76 210 9.0 17.0 0.00 0.00 0.00 43 999.8
20260506154103 76 208 8.0 17.0 0.00 0.00 0.00 42 999.8
20260506153903 76 209 7.0 17.0 0.00 0.00 0.00 43 999.7
20260506153803 76 209 7.0 17.0 0.00 0.00 0.00 43 999.7
20260506153703 76 212 7.0 17.0 0.00 0.00 0.00 45 999.8
20260506153503 75 217 6.0 16.0 0.00 0.00 0.00 46 999.9
20260506153403 75 216 6.0 16.0 0.00 0.00 0.00 47 999.8
20260506153317 75 217 7.0 16.0 0.00 0.00 0.00 45 999.8
20260506153303 75 217 7.0 16.0 0.00 0.00 0.00 45 999.8
20260506153203 75 219 7.0 16.0 0.00 0.00 0.00 43 999.5
20260506153003 74 221 8.0 16.0 0.00 0.00 0.00 45 999.7
20260506152903 74 221 8.0 16.0 0.00 0.00 0.00 44 999.7
20260506152803 75 220 8.0 16.0 0.00 0.00 0.00 45 999.7
20260506152703 75 220 8.0 16.0 0.00 0.00 0.00 45 999.7
20260506152603 75 219 8.0 16.0 0.00 0.00 0.00 44 999.7
20260506152503 75 219 8.0 17.0 0.00 0.00 0.00 44 999.8
20260506152403 75 217 8.0 17.0 0.00 0.00 0.00 44 999.7
20260506152305 75 217 8.0 18.0 0.00 0.00 0.00 44 999.5
20260506152203 75 218 8.0 18.0 0.00 0.00 0.00 44 999.4
20260506152103 75 219 8.0 18.0 0.00 0.00 0.00 44 999.7
20260506152003 75 222 9.0 18.0 0.00 0.00 0.00 43 999.7
20260506151903 75 225 10.0 18.0 0.00 0.00 0.00 44 999.7
20260506151803 75 228 10.0 18.0 0.00 0.00 0.00 43 999.7
20260506151703 76 229 10.0 18.0 0.00 0.00 0.00 43 999.7
20260506151603 76 229 10.0 18.0 0.00 0.00 0.00 42 999.5
20260506151503 76 229 10.0 18.0 0.00 0.00 0.00 41 999.5
20260506151403 76 231 10.0 18.0 0.00 0.00 0.00 42 999.3
20260506151303 76 231 10.0 18.0 0.00 0.00 0.00 41 999.7
20260506151203 76 230 10.0 18.0 0.00 0.01 0.00 41 999.5
20260506151103 77 229 9.0 17.0 0.00 0.03 0.00 42 999.5
20260506151003 77 226 9.0 17.0 0.00 0.06 0.00 42 999.5
20260506150903 76 225 9.0 16.0 0.00 0.11 0.00 42 999.7
20260506150803 76 223 9.0 16.0 0.00 0.17 0.00 42 999.4
20260506150716 76 222 9.0 17.0 0.00 0.21 0.00 43 999.5
20260506150703 76 222 9.0 17.0 0.00 0.21 0.00 43 999.5
20260506150603 76 223 9.0 17.0 0.00 0.21 0.00 42 999.7
20260506150304 77 221 10.0 20.0 0.00 0.21 0.00 41 999.4
20260506150217 77 221 10.0 20.0 0.00 0.21 0.00 43 999.4
20260506150203 77 221 10.0 20.0 0.00 0.21 0.00 43 999.4
20260506150103 77 221 10.0 20.0 0.00 0.21 0.00 41 999.4
20260506145904 76 222 11.0 20.0 0.00 0.21 0.00 41 999.4
20260506145803 76 220 11.0 20.0 0.00 0.21 0.00 43 999.4
20260506145718 76 219 11.0 20.0 0.00 0.21 0.00 41 999.3
20260506145703 76 219 11.0 20.0 0.00 0.21 0.00 41 999.3
20260506145617 76 217 11.0 20.0 0.00 0.21 0.00 40 999.3
20260506145603 76 217 11.0 20.0 0.00 0.21 0.00 40 999.3
20260506145520 76 216 11.0 20.0 0.00 0.21 0.00 41 999.5
20260506145103 75 213 10.0 20.0 0.00 0.21 0.00 41 999.4
20260506145003 76 210 10.0 20.0 0.00 0.21 0.00 41 999.5
20260506144903 76 208 9.0 20.0 0.00 0.21 0.00 42 999.5
20260506144803 76 209 9.0 20.0 0.00 0.21 0.00 38 999.3
20260506144703 76 209 9.0 20.0 0.00 0.21 0.00 40 999.4
20260506144603 76 208 8.0 20.0 0.00 0.24 0.00 40 999.4
20260506144503 76 204 8.0 17.0 0.00 0.24 0.00 39 999.3
20260506144403 76 199 9.0 17.0 0.00 0.24 0.00 39 999.3
20260506144303 76 195 8.0 16.0 0.00 0.24 0.00 37 999.3
20260506144203 76 192 8.0 19.0 0.00 0.24 0.00 37 999.1
20260506144103 76 193 8.0 19.0 0.00 0.24 0.00 39 999.4
20260506144003 76 194 8.0 19.0 0.00 0.24 0.00 37 999.4
20260506143903 76 195 9.0 19.0 0.00 0.24 0.00 38 999.4
20260506143803 76 194 9.0 19.0 0.00 0.24 0.00 38 999.5
20260506143703 77 190 9.0 19.0 0.00 0.24 0.00 37 999.4
20260506143603 77 186 9.0 21.0 0.00 0.24 0.00 37 999.3
20260506143503 77 184 10.0 21.0 0.00 0.24 0.00 37 999.3
20260506143403 77 184 10.0 21.0 0.00 0.24 0.00 39 999.1
20260506143303 77 185 9.0 21.0 0.00 0.24 0.00 36 999.3
20260506143219 77 187 9.0 21.0 0.00 0.24 0.00 38 999.3
20260506143203 77 187 9.0 21.0 0.00 0.24 0.00 38 999.3
20260506143103 78 186 9.0 21.0 0.00 0.24 0.00 38 999.2
20260506142903 78 182 9.0 21.0 0.00 0.24 0.00 37 999.2
20260506142818 78 181 9.0 21.0 0.00 0.24 0.00 38 999.2
20260506142803 78 181 9.0 21.0 0.00 0.24 0.00 38 999.2
20260506142703 78 186 9.0 21.0 0.00 0.24 0.00 35 999.2
20260506142621 78 189 9.0 21.0 0.00 0.24 0.00 37 999.2
20260506142503 78 193 9.0 19.0 0.00 0.24 0.00 39 999.4
20260506142319 78 194 9.0 19.0 0.00 0.24 0.00 36 999.2
20260506142305 78 194 9.0 19.0 0.00 0.24 0.00 36 999.2
20260506142203 78 193 9.0 19.0 0.00 0.24 0.00 35 999.1
20260506142019 78 192 9.0 19.0 0.00 0.24 0.00 36 999.3
20260506142003 78 192 9.0 19.0 0.00 0.24 0.00 36 999.3
20260506141903 78 191 9.0 19.0 0.00 0.24 0.00 39 999.1
20260506141703 77 187 8.0 19.0 0.00 0.24 0.00 37 999.2
20260506141603 77 186 8.0 19.0 0.00 0.24 0.00 38 999.1
20260506141503 77 183 7.0 18.0 0.00 0.24 0.00 36 999.1
20260506141403 77 182 7.0 18.0 0.00 0.24 0.00 37 999.3
20260506141303 78 177 7.0 18.0 0.00 0.24 0.00 36 999.3
20260506141203 78 172 6.0 18.0 0.00 0.24 0.00 40 999.1
20260506141104 78 171 6.0 14.0 0.00 0.24 0.00 36 999.1
20260506141016 78 169 7.0 14.0 0.00 0.24 0.00 36 999.3
20260506141003 78 169 7.0 14.0 0.00 0.24 0.00 36 999.3
20260506140903 78 170 7.0 14.0 0.00 0.24 0.00 37 999.4
20260506140703 79 169 7.0 14.0 0.00 0.24 0.00 37 999.1
20260506140620 79 170 7.0 14.0 0.00 0.24 0.00 37 999.1
20260506140603 78 169 7.0 14.0 0.00 0.24 0.00 38 999.1
20260506140503 78 167 7.0 16.0 0.00 0.24 0.00 39 999.1
20260506140303 78 168 7.0 16.0 0.00 0.24 0.00 37 999.2
20260506140203 78 171 8.0 19.0 0.00 0.24 0.00 37 999.3
20260506140103 78 170 8.0 19.0 0.00 0.24 0.00 38 999.2
20260506140018 78 169 8.0 19.0 0.00 0.24 0.00 36 999.2
20260506140003 78 169 8.0 19.0 0.00 0.24 0.00 36 999.2
20260506135903 77 168 8.0 19.0 0.00 0.24 0.00 37 999.2
20260506135703 78 170 8.0 19.0 0.00 0.24 0.00 38 999.1
20260506135617 78 168 9.0 19.0 0.00 0.24 0.00 38 999.1
20260506135603 78 167 9.0 19.0 0.00 0.24 0.00 38 999.1
20260506135503 78 167 9.0 19.0 0.00 0.24 0.00 38 999.4
20260506135306 78 169 8.0 19.0 0.00 0.24 0.00 36 999.2
20260506135203 78 168 8.0 19.0 0.00 0.24 0.00 37 999.1
20260506135117 78 168 8.0 19.0 0.00 0.24 0.00 37 999.1
20260506135103 78 167 7.0 17.0 0.00 0.24 0.00 37 999.1
20260506135003 78 165 7.0 14.0 0.00 0.24 0.00 38 999.1
20260506134803 78 165 7.0 18.0 0.00 0.24 0.00 38 999.2
20260506134703 78 163 7.0 18.0 0.00 0.24 0.00 38 999.0
20260506134603 78 162 7.0 19.0 0.00 0.24 0.00 36 999.2
20260506134503 78 163 8.0 19.0 0.00 0.24 0.00 35 999.2
20260506134403 78 163 8.0 19.0 0.00 0.24 0.00 36 999.2
20260506134304 78 163 8.0 19.0 0.00 0.24 0.00 36 999.1
20260506134203 78 163 8.0 19.0 0.00 0.24 0.00 42 999.3
20260506134120 78 163 8.0 19.0 0.00 0.24 0.00 36 999.2
20260506134103 78 163 8.0 19.0 0.00 0.24 0.00 36 999.2
20260506134003 78 165 9.0 19.0 0.00 0.24 0.00 38 999.1
20260506133803 78 166 9.0 19.0 0.00 0.24 0.00 37 999.4
20260506133703 79 167 9.0 19.0 0.00 0.24 0.00 38 999.4
20260506133603 79 167 9.0 19.0 0.00 0.24 0.00 36 999.4
20260506133503 79 168 9.0 19.0 0.00 0.24 0.00 36 999.4
20260506133403 79 167 9.0 19.0 0.00 0.24 0.00 35 999.3
20260506133303 79 167 9.0 19.0 0.00 0.24 0.00 32 999.1
20260506133203 79 167 9.0 19.0 0.00 0.24 0.00 35 999.1
20260506133103 79 168 9.0 19.0 0.00 0.24 0.00 35 999.1
20260506133003 79 170 9.0 19.0 0.00 0.24 0.00 36 999.2
20260506132919 79 172 9.0 22.0 0.00 0.24 0.00 36 999.3
20260506132903 79 174 9.0 22.0 0.00 0.24 0.00 36 999.5
20260506132817 79 179 9.0 22.0 0.00 0.24 0.00 36 999.5
20260506132803 79 179 9.0 22.0 0.00 0.24 0.00 36 999.5
20260506132503 79 183 10.0 23.0 0.00 0.24 0.00 35 999.3
20260506132403 79 182 10.0 23.0 0.00 0.24 0.00 36 999.2
20260506132306 79 184 10.0 23.0 0.00 0.24 0.00 37 999.2
20260506132203 79 184 9.0 23.0 0.00 0.24 0.00 33 999.3
20260506132103 79 184 9.0 23.0 0.00 0.24 0.00 34 999.3
20260506132018 79 181 9.0 23.0 0.00 0.24 0.00 35 999.1
20260506132003 79 180 9.0 23.0 0.00 0.24 0.00 35 999.1
20260506131903 79 174 9.0 23.0 0.00 0.24 0.00 34 999.1
20260506131703 79 164 9.0 23.0 0.00 0.24 0.00 33 999.4
20260506131603 79 163 10.0 23.0 0.00 0.24 0.00 33 999.1
20260506131503 80 161 9.0 20.0 0.00 0.24 0.00 37 999.3
20260506131403 80 160 9.0 20.0 0.00 0.24 0.00 41 999.2
20260506131303 79 159 10.0 20.0 0.00 0.24 0.00 36 999.4
20260506131203 79 159 10.0 20.0 0.00 0.24 0.00 36 999.1
20260506131103 79 159 10.0 20.0 0.00 0.24 0.00 36 999.1
20260506131016 78 159 10.0 20.0 0.00 0.24 0.00 37 999.4
20260506131003 78 159 10.0 20.0 0.00 0.24 0.00 37 999.4
20260506130903 78 159 10.0 20.0 0.00 0.24 0.00 37 999.3
20260506130716 78 159 9.0 20.0 0.00 0.24 0.00 36 999.3
20260506130703 78 160 9.0 20.0 0.00 0.24 0.00 36 999.3
20260506130603 78 158 9.0 19.0 0.00 0.24 0.00 39 999.4
20260506130403 78 158 9.0 23.0 0.00 0.24 0.00 38 999.4
20260506130303 78 159 9.0 23.0 0.00 0.24 0.00 37 999.7
20260506130203 78 157 9.0 23.0 0.00 0.24 0.00 36 999.2
20260506130103 78 155 10.0 23.0 0.00 0.24 0.00 37 999.5
20260506130004 78 154 10.0 23.0 0.00 0.24 0.00 36 999.5
20260506125903 78 153 11.0 23.0 0.00 0.24 0.00 36 999.4
20260506125803 79 153 12.0 23.0 0.00 0.24 0.00 38 999.2
20260506125703 78 152 12.0 23.0 0.00 0.24 0.00 38 999.5
20260506125603 78 154 12.0 23.0 0.00 0.24 0.00 37 999.5
20260506125503 78 155 12.0 23.0 0.00 0.24 0.00 38 999.4
20260506125403 78 155 12.0 23.0 0.00 0.24 0.00 36 999.4
20260506125305 78 154 11.0 23.0 0.00 0.24 0.00 39 999.4
20260506125203 77 154 11.0 21.0 0.00 0.24 0.00 39 999.4
20260506125103 77 155 11.0 20.0 0.00 0.24 0.00 38 999.3
20260506125003 77 156 11.0 20.0 0.00 0.24 0.00 36 999.2
20260506124903 77 158 10.0 19.0 0.00 0.24 0.00 35 999.4
20260506124803 77 161 9.0 19.0 0.00 0.24 0.00 38 999.3
20260506124703 77 163 10.0 19.0 0.00 0.24 0.00 36 999.3
20260506124603 77 161 9.0 19.0 0.00 0.24 0.00 36 999.7
20260506124503 78 159 9.0 17.0 0.00 0.24 0.00 38 999.7
20260506124403 78 156 9.0 17.0 0.00 0.24 0.00 37 999.2
20260506124303 78 156 9.0 17.0 0.00 0.24 0.00 37 999.3
20260506124203 78 157 8.0 17.0 0.00 0.24 0.00 37 999.4
20260506124103 78 157 8.0 17.0 0.00 0.24 0.00 38 999.5
20260506124018 78 156 8.0 17.0 0.00 0.24 0.00 37 999.8
20260506124003 78 156 8.0 17.0 0.00 0.24 0.00 37 999.8
20260506123903 78 155 8.0 17.0 0.00 0.24 0.00 34 999.4
20260506123717 79 149 8.0 17.0 0.00 0.24 0.00 38 999.5
20260506123703 79 149 8.0 17.0 0.00 0.24 0.00 38 999.5
20260506123603 79 147 8.0 17.0 0.00 0.24 0.00 34 999.3
20260506123417 79 152 9.0 17.0 0.00 0.24 0.00 36 999.5
20260506123403 79 152 9.0 17.0 0.00 0.24 0.00 36 999.4
20260506123303 79 153 9.0 17.0 0.00 0.24 0.00 35 999.4
20260506123103 79 151 9.0 17.0 0.00 0.24 0.00 35 999.3
20260506123004 79 149 9.0 17.0 0.00 0.24 0.00 37 999.4
20260506122903 79 147 9.0 17.0 0.00 0.24 0.00 36 999.4
20260506122817 79 145 9.0 17.0 0.00 0.24 0.00 36 999.5
20260506122803 79 144 9.0 17.0 0.00 0.24 0.00 38 999.2
20260506122703 79 141 9.0 17.0 0.00 0.24 0.00 38 999.2
20260506122503 79 142 9.0 17.0 0.00 0.24 0.00 34 999.4
20260506122403 79 141 8.0 17.0 0.00 0.24 0.00 36 999.4
20260506122305 78 138 7.0 17.0 0.00 0.24 0.00 42 999.3
20260506122203 78 140 7.0 17.0 0.00 0.24 0.00 38 999.5
20260506122103 77 139 7.0 17.0 0.00 0.24 0.00 39 999.2
20260506122018 77 138 7.0 17.0 0.00 0.24 0.00 36 999.4
20260506122003 77 139 7.0 17.0 0.00 0.24 0.00 36 999.2
20260506121916 77 138 7.0 17.0 0.00 0.24 0.00 39 999.2
20260506121903 77 138 6.0 17.0 0.00 0.24 0.00 39 999.2
20260506121603 77 151 4.0 16.0 0.00 0.24 0.00 40 999.2
20260506121503 77 148 4.0 14.0 0.00 0.24 0.00 42 999.1
20260506121403 77 145 5.0 14.0 0.00 0.24 0.00 40 999.5
20260506121303 77 150 5.0 14.0 0.00 0.24 0.00 36 999.5
20260506121203 77 150 4.0 14.0 0.00 0.24 0.00 36 999.5
20260506121103 78 152 4.0 14.0 0.00 0.24 0.00 35 999.5
20260506121016 78 155 4.0 14.0 0.00 0.24 0.00 34 999.5
20260506121003 78 155 4.0 14.0 0.00 0.24 0.00 34 999.5
20260506120903 78 156 4.0 14.0 0.00 0.24 0.00 35 999.5
20260506120703 79 155 4.0 14.0 0.00 0.24 0.00 38 999.7
20260506120603 79 152 4.0 14.0 0.00 0.24 0.00 37 999.7
20260506120503 79 148 4.0 14.0 0.00 0.24 0.00 40 999.7
20260506120403 78 141 4.0 9.0 0.00 0.24 0.00 40 999.3
20260506120318 79 137 4.0 9.0 0.00 0.24 0.00 39 999.3
20260506120303 79 136 4.0 9.0 0.00 0.24 0.00 39 999.3
20260506120203 79 131 4.0 9.0 0.00 0.24 0.00 37 999.4
20260506120003 79 129 3.0 9.0 0.00 0.24 0.00 39 999.8
20260506115916 79 127 3.0 9.0 0.00 0.24 0.00 44 999.7
20260506115903 79 126 3.0 9.0 0.00 0.24 0.00 44 999.5
20260506115803 79 122 3.0 9.0 0.00 0.24 0.00 43 999.5
20260506115603 78 87 3.0 9.0 0.00 0.24 0.00 43 999.4
20260506115503 78 79 3.0 9.0 0.00 0.24 0.00 43 999.7
20260506115403 78 77 3.0 8.0 0.00 0.24 0.00 43 999.8
20260506115306 78 73 2.0 6.0 0.00 0.24 0.00 41 999.8
20260506115203 77 63 2.0 6.0 0.00 0.24 0.00 44 999.8
20260506115117 77 55 2.0 6.0 0.00 0.24 0.00 43 999.8
20260506115103 77 54 2.0 6.0 0.00 0.24 0.00 43 999.8
20260506115019 77 50 2.0 7.0 0.00 0.24 0.00 40 1000.0
20260506115003 77 49 2.0 7.0 0.00 0.24 0.00 40 1000.0
20260506114703 76 55 3.0 7.0 0.00 0.24 0.00 40 999.8
20260506114618 76 58 3.0 7.0 0.00 0.24 0.00 40 999.8
20260506114603 76 59 3.0 7.0 0.00 0.24 0.00 40 999.8
20260506114503 76 72 3.0 9.0 0.00 0.24 0.00 40 999.8
20260506114419 76 82 3.0 9.0 0.00 0.24 0.00 42 999.8
20260506114308 76 95 3.0 9.0 0.00 0.24 0.00 45 999.8
20260506114103 76 112 4.0 9.0 0.00 0.24 0.00 46 1000.0
20260506114003 76 121 4.0 9.0 0.00 0.24 0.00 46 1000.0
20260506113903 76 124 4.0 9.0 0.00 0.24 0.00 43 1000.1
20260506113803 76 127 4.0 9.0 0.00 0.24 0.00 42 1000.1
20260506113703 76 134 4.0 9.0 0.00 0.24 0.00 42 1000.0
20260506113603 76 136 4.0 9.0 0.00 0.24 0.00 49 999.9
20260506113503 76 134 4.0 9.0 0.00 0.24 0.00 49 1000.1
20260506113403 76 130 4.0 9.0 0.00 0.24 0.00 45 1000.1
20260506113303 76 130 4.0 8.0 0.00 0.24 0.00 44 1000.0
20260506113213 76 129 4.0 8.0 0.00 0.24 0.00 47 1000.0
20260506113103 76 125 4.0 8.0 0.00 0.24 0.00 45 1000.2
20260506113003 76 122 4.0 8.0 0.00 0.24 0.00 47 1000.2
20260506112903 76 123 4.0 8.0 0.00 0.24 0.00 48 1000.2
20260506112803 76 123 4.0 8.0 0.00 0.24 0.00 45 1000.1
20260506112703 76 120 4.0 8.0 0.00 0.24 0.00 42 1000.1
20260506112603 76 118 3.0 7.0 0.00 0.24 0.00 44 1000.3
20260506112503 76 122 3.0 7.0 0.00 0.24 0.00 44 1000.3
20260506112403 76 123 3.0 7.0 0.00 0.24 0.00 46 1000.4
20260506112317 76 121 3.0 7.0 0.00 0.24 0.00 46 1000.4
20260506112305 76 122 3.0 7.0 0.00 0.24 0.00 46 1000.4
20260506112203 76 123 3.0 7.0 0.00 0.24 0.00 46 1000.2
20260506112003 76 133 3.0 8.0 0.00 0.24 0.00 44 1000.5
20260506111903 76 137 3.0 8.0 0.00 0.24 0.00 41 1000.5
20260506111803 76 141 4.0 8.0 0.00 0.24 0.00 47 1000.5
20260506111703 76 148 4.0 9.0 0.00 0.24 0.00 44 1000.2
20260506111603 76 152 4.0 9.0 0.00 0.24 0.00 47 1000.5
20260506111503 76 152 4.0 9.0 0.00 0.24 0.00 43 1000.5
20260506111403 76 155 4.0 9.0 0.00 0.24 0.00 47 1000.6
20260506111203 75 156 4.0 9.0 0.00 0.24 0.00 48 1000.5
20260506111103 75 157 4.0 9.0 0.00 0.24 0.00 47 1000.5
20260506111003 75 157 4.0 10.0 0.00 0.24 0.00 47 1000.5
20260506110903 75 158 4.0 10.0 0.00 0.24 0.00 45 1000.5
20260506110803 75 152 5.0 11.0 0.00 0.24 0.00 44 1000.2
20260506110703 75 145 5.0 13.0 0.00 0.24 0.00 44 1000.4
20260506110604 75 138 5.0 13.0 0.00 0.24 0.00 47 1000.6
20260506110503 75 137 5.0 13.0 0.00 0.24 0.00 46 1000.3
20260506110403 75 136 6.0 13.0 0.00 0.24 0.00 47 1000.3
20260506110303 74 130 6.0 13.0 0.00 0.24 0.00 47 1000.3
20260506110203 74 129 6.0 13.0 0.00 0.24 0.00 50 1000.3
20260506110103 74 128 6.0 13.0 0.00 0.24 0.00 45 1000.4
20260506110003 74 128 6.0 13.0 0.00 0.24 0.00 49 1000.3
20260506105916 74 123 5.0 13.0 0.00 0.24 0.00 46 1000.3
20260506105903 74 123 5.0 13.0 0.00 0.24 0.00 46 1000.3
20260506105803 74 119 5.0 13.0 0.00 0.24 0.00 45 1000.4
20260506105717 74 116 5.0 13.0 0.00 0.24 0.00 46 1000.4
20260506105603 74 112 5.0 13.0 0.00 0.24 0.00 47 1000.4
20260506105403 74 92 4.0 8.0 0.00 0.24 0.00 45 1000.6
20260506105305 74 94 4.0 8.0 0.00 0.24 0.00 46 1000.4
20260506105203 74 91 4.0 8.0 0.00 0.24 0.00 48 1000.7
20260506105116 74 88 4.0 8.0 0.00 0.24 0.00 48 1000.7
20260506105103 74 87 4.0 8.0 0.00 0.24 0.00 48 1000.7
20260506105003 74 76 4.0 8.0 0.00 0.24 0.00 50 1000.5
20260506104803 74 67 4.0 7.0 0.00 0.24 0.00 45 1000.4
20260506104703 75 65 3.0 7.0 0.00 0.24 0.00 47 1000.6
20260506104603 75 68 3.0 7.0 0.00 0.24 0.00 45 1000.6
20260506104503 75 64 3.0 7.0 0.00 0.24 0.00 49 1000.6
20260506104403 75 58 3.0 6.0 0.00 0.24 0.00 47 1000.8
20260506104303 75 64 3.0 6.0 0.00 0.24 0.00 49 1000.8
20260506104203 75 66 3.0 6.0 0.00 0.24 0.00 52 1000.8
20260506104103 74 63 2.0 6.0 0.00 0.24 0.00 49 1000.6
20260506104003 74 71 2.0 6.0 0.00 0.24 0.00 51 1000.6
20260506103903 74 69 2.0 6.0 0.00 0.24 0.00 53 1000.6
20260506103803 74 63 2.0 8.0 0.00 0.24 0.00 48 1000.6
20260506103703 74 69 3.0 8.0 0.00 0.24 0.00 48 1000.6
20260506103619 74 72 3.0 12.0 0.00 0.24 0.00 48 1000.6
20260506103603 74 73 3.0 13.0 0.00 0.24 0.00 51 1000.7
20260506103503 74 79 3.0 13.0 0.00 0.24 0.00 51 1000.7
20260506103319 74 92 4.0 13.0 0.00 0.24 0.00 55 1000.7
20260506103303 74 94 4.0 13.0 0.00 0.24 0.00 55 1000.6
20260506103203 74 96 4.0 13.0 0.00 0.24 0.00 54 1000.6
20260506103116 74 94 4.0 13.0 0.00 0.24 0.00 52 1000.5
20260506103003 74 95 4.0 13.0 0.00 0.24 0.00 50 1000.8
20260506102803 74 108 4.0 13.0 0.00 0.24 0.00 51 1000.9
20260506102703 74 116 5.0 13.0 0.00 0.24 0.00 54 1000.9
20260506102603 73 122 5.0 13.0 0.00 0.24 0.00 56 1000.8
20260506102503 73 127 4.0 13.0 0.00 0.24 0.00 57 1000.8
20260506102403 73 131 4.0 11.0 0.00 0.24 0.00 51 1000.9
20260506102305 73 127 4.0 11.0 0.00 0.24 0.00 52 1000.9
20260506102216 73 121 4.0 9.0 0.00 0.24 0.00 52 1000.9
20260506102203 74 121 4.0 9.0 0.00 0.24 0.00 53 1000.9
20260506102103 74 117 4.0 9.0 0.00 0.24 0.00 51 1000.9
20260506101920 74 119 4.0 9.0 0.00 0.24 0.00 54 1000.9
20260506101903 74 118 4.0 9.0 0.00 0.24 0.00 54 1000.7
20260506101818 74 110 4.0 9.0 0.00 0.24 0.00 54 1000.7
20260506101803 74 105 4.0 9.0 0.00 0.24 0.00 54 1001.0
20260506101503 73 80 4.0 9.0 0.00 0.24 0.00 60 1000.9
20260506101403 73 77 4.0 11.0 0.00 0.24 0.00 57 1001.0
20260506101303 72 84 4.0 12.0 0.00 0.24 0.00 57 1001.0
20260506101203 72 93 4.0 12.0 0.00 0.24 0.00 59 1001.0
20260506101103 72 95 5.0 12.0 0.00 0.24 0.00 58 1001.0
20260506101003 72 90 5.0 12.0 0.00 0.24 0.00 57 1000.9
20260506100903 72 86 5.0 12.0 0.00 0.24 0.00 57 1000.9
20260506100816 72 83 5.0 12.0 0.00 0.24 0.00 57 1001.0
20260506100803 72 83 5.0 12.0 0.00 0.24 0.00 57 1000.8
20260506100703 72 82 5.0 12.0 0.00 0.24 0.00 56 1000.8
20260506100503 72 82 5.0 12.0 0.00 0.24 0.00 57 1001.0
20260506100403 72 78 6.0 12.0 0.00 0.24 0.00 58 1000.9
20260506100317 72 72 6.0 12.0 0.00 0.24 0.00 58 1001.0
20260506100303 71 68 5.0 12.0 0.00 0.24 0.00 59 1001.1
20260506100203 71 58 5.0 12.0 0.00 0.24 0.00 59 1001.1
20260506100003 71 53 4.0 9.0 0.00 0.24 0.00 57 1001.1
20260506095903 71 56 4.0 9.0 0.00 0.24 0.00 59 1001.1
20260506095803 71 54 4.0 9.0 0.00 0.24 0.00 60 1001.0
20260506095703 71 61 4.0 9.0 0.00 0.24 0.00 59 1001.0
20260506095603 70 69 3.0 8.0 0.00 0.24 0.00 58 1000.8
20260506095518 70 78 3.0 9.0 0.00 0.24 0.00 58 1000.8
20260506095503 70 81 3.0 9.0 0.00 0.24 0.00 58 1000.8
20260506095403 71 99 3.0 9.0 0.00 0.24 0.00 61 1001.3
20260506095217 70 119 4.0 9.0 0.00 0.24 0.00 56 1001.2
20260506095203 70 119 4.0 9.0 0.00 0.24 0.00 56 1001.1
20260506095103 71 118 4.0 9.0 0.00 0.24 0.00 59 1001.1
20260506095019 71 117 4.0 9.0 0.00 0.24 0.00 59 1001.2
20260506094903 71 113 4.0 9.0 0.00 0.24 0.00 58 1001.1
20260506094703 71 110 5.0 9.0 0.00 0.24 0.00 58 1001.1
20260506094603 71 102 5.0 9.0 0.00 0.24 0.00 61 1001.1
20260506094503 71 95 5.0 10.0 0.00 0.24 0.00 59 1001.1
20260506094404 71 89 5.0 11.0 0.00 0.24 0.00 60 1001.1
20260506094308 71 83 5.0 11.0 0.00 0.24 0.00 57 1001.0
20260506094203 71 83 5.0 11.0 0.00 0.24 0.00 59 1001.1
20260506094103 71 86 5.0 11.0 0.00 0.24 0.00 57 1001.1
20260506094003 71 90 5.0 11.0 0.00 0.24 0.00 59 1001.1
20260506093903 71 93 5.0 11.0 0.00 0.24 0.00 59 1001.2
20260506093803 71 89 5.0 11.0 0.00 0.24 0.00 56 1001.1
20260506093703 71 90 5.0 11.0 0.00 0.24 0.00 60 1001.2
20260506093604 71 91 5.0 11.0 0.00 0.24 0.00 57 1001.2
20260506093503 71 94 5.0 11.0 0.00 0.24 0.00 56 1001.3
20260506093403 71 92 5.0 11.0 0.00 0.24 0.00 58 1001.3
20260506093303 71 91 5.0 11.0 0.00 0.24 0.00 61 1001.2
20260506093203 71 84 4.0 8.0 0.00 0.24 0.00 63 1001.2
20260506093116 71 78 4.0 8.0 0.00 0.24 0.00 63 1001.2
20260506093103 71 77 4.0 8.0 0.00 0.24 0.00 63 1001.2
20260506093003 70 63 3.0 8.0 0.00 0.24 0.00 64 1001.2
20260506092917 70 50 3.0 8.0 0.00 0.24 0.00 64 1001.2
20260506092814 70 41 3.0 9.0 0.00 0.24 0.00 66 1001.0
20260506092603 69 46 3.0 9.0 0.00 0.24 0.00 65 1001.1
20260506092503 69 45 3.0 9.0 0.00 0.24 0.00 63 1001.0
20260506092418 69 48 3.0 9.0 0.00 0.24 0.00 62 1001.0
20260506092403 69 48 3.0 9.0 0.00 0.24 0.00 62 1001.0
20260506092317 69 50 3.0 9.0 0.00 0.24 0.00 61 1001.1
20260506092306 69 50 3.0 9.0 0.00 0.24 0.00 61 1001.1
20260506092118 69 52 3.0 9.0 0.00 0.24 0.00 65 1001.1
20260506092017 69 53 4.0 9.0 0.00 0.24 0.00 64 1001.0
20260506092003 69 55 4.0 9.0 0.00 0.24 0.00 64 1001.0
20260506091703 69 67 4.0 9.0 0.00 0.24 0.00 64 1001.1
20260506091603 69 73 3.0 9.0 0.00 0.24 0.00 64 1001.0
20260506091504 69 104 5.0 9.0 0.00 0.24 0.00 66 1001.1
20260506073503 60 53 5.0 12.0 0.00 0.24 0.00 82 1001.2
20260506073403 60 49 5.0 12.0 0.00 0.24 0.00 85 1001.2
20260506073318 60 46 5.0 12.0 0.00 0.24 0.00 82 1001.3
20260506073303 60 46 5.0 13.0 0.00 0.24 0.00 82 1001.5
20260506073203 60 43 5.0 13.0 0.00 0.24 0.00 81 1001.5
20260506073018 60 35 5.0 13.0 0.00 0.24 0.00 80 1001.2
20260506073003 60 34 5.0 13.0 0.00 0.24 0.00 80 1001.3
20260506072903 60 39 6.0 13.0 0.00 0.24 0.00 81 1001.3
20260506072718 60 44 6.0 13.0 0.00 0.24 0.00 81 1001.3
20260506072703 60 44 6.0 13.0 0.00 0.24 0.00 82 1001.4
20260506072603 59 48 5.0 13.0 0.00 0.24 0.00 80 1001.4
20260506072403 60 52 5.0 13.0 0.00 0.24 0.00 82 1001.4
20260506072305 60 55 5.0 13.0 0.00 0.24 0.00 81 1001.4
20260506072203 59 53 5.0 13.0 0.00 0.24 0.00 80 1001.5
20260506072117 60 54 5.0 12.0 0.00 0.24 0.00 80 1001.5
20260506072103 60 54 5.0 12.0 0.00 0.24 0.00 80 1001.5
20260506072016 60 57 5.0 12.0 0.00 0.24 0.00 82 1001.3
20260506072003 60 58 5.0 12.0 0.00 0.24 0.00 82 1001.5
20260506071817 60 56 5.0 14.0 0.00 0.24 0.00 82 1001.3
20260506071703 60 58 5.0 14.0 0.00 0.24 0.00 80 1001.3
20260506071503 60 56 5.0 14.0 0.00 0.24 0.00 82 1001.5
20260506071403 60 54 5.0 14.0 0.00 0.24 0.00 81 1001.5
20260506071303 59 52 6.0 14.0 0.00 0.24 0.00 85 1001.5
20260506071203 59 54 6.0 14.0 0.00 0.24 0.00 83 1001.6
20260506071103 59 55 6.0 14.0 0.00 0.24 0.00 81 1001.7
20260506071003 59 55 6.0 14.0 0.00 0.24 0.00 82 1001.7
20260506070903 59 58 6.0 14.0 0.00 0.24 0.00 82 1001.4
20260506070803 59 60 6.0 14.0 0.00 0.24 0.00 82 1001.4
20260506070703 59 62 6.0 14.0 0.00 0.24 0.00 83 1001.4
20260506070603 59 64 6.0 12.0 0.00 0.24 0.00 83 1001.5
20260506070503 59 65 6.0 12.0 0.00 0.24 0.00 84 1001.5
20260506070403 58 68 7.0 12.0 0.00 0.24 0.00 84 1001.4
20260506070303 58 71 7.0 12.0 0.00 0.24 0.00 85 1001.4
20260506070203 58 72 7.0 12.0 0.00 0.24 0.00 83 1001.4
20260506070103 58 71 7.0 12.0 0.00 0.24 0.00 84 1001.4
20260506062503 57 64 6.0 14.0 0.00 0.24 0.00 87 1001.6
20260506062315 56 63 5.0 14.0 0.00 0.24 0.00 86 1001.7
20260506062305 56 61 6.0 14.0 0.00 0.24 0.00 88 1001.5
20260506062203 56 57 6.0 14.0 0.00 0.24 0.00 88 1001.5
20260506062003 56 54 6.0 14.0 0.00 0.24 0.00 89 1001.5
20260506061903 56 52 5.0 14.0 0.00 0.24 0.00 89 1001.5
20260506061816 55 53 6.0 14.0 0.00 0.24 0.00 88 1001.3
20260506061803 55 54 6.0 14.0 0.00 0.24 0.00 88 1001.6
20260506061703 55 49 6.0 14.0 0.00 0.24 0.00 88 1001.6
20260506061503 55 50 6.0 11.0 0.00 0.24 0.00 89 1001.3
20260506061403 55 50 6.0 11.0 0.00 0.24 0.00 90 1001.3
20260506061318 55 51 6.0 11.0 0.00 0.24 0.00 89 1001.3
20260506061303 55 53 6.0 12.0 0.00 0.24 0.00 89 1001.5
20260506061203 55 55 6.0 12.0 0.00 0.24 0.00 89 1001.5
20260506061003 55 55 6.0 12.0 0.00 0.24 0.00 88 1001.6
20260506060916 55 54 6.0 12.0 0.00 0.24 0.00 89 1001.6
20260506060903 55 54 6.0 12.0 0.00 0.24 0.00 89 1001.6
20260506060803 55 53 6.0 12.0 0.00 0.24 0.00 89 1001.5
20260506060603 55 51 6.0 12.0 0.00 0.24 0.00 89 1001.5
20260506060503 55 53 6.0 12.0 0.00 0.24 0.00 89 1001.5
20260506060417 55 51 6.0 12.0 0.00 0.24 0.00 89 1001.6
20260506060403 55 50 6.0 12.0 0.00 0.24 0.00 89 1001.4
20260506060303 55 48 6.0 12.0 0.00 0.24 0.00 89 1001.4
20260506051403 53 42 6.0 11.0 0.00 0.24 0.00 90 1001.5
20260506051303 53 41 6.0 11.0 0.00 0.24 0.00 90 1001.5
20260506051203 53 39 6.0 11.0 0.00 0.24 0.00 90 1001.5
20260506051103 53 42 6.0 11.0 0.00 0.24 0.00 90 1001.5
20260506051017 53 41 6.0 11.0 0.00 0.24 0.00 90 1001.6
20260506051003 53 42 5.0 11.0 0.00 0.24 0.00 90 1001.6
20260506050903 53 41 5.0 11.0 0.00 0.24 0.00 90 1001.6
20260506050703 52 43 5.0 11.0 0.00 0.24 0.00 89 1001.7
20260506050603 52 46 6.0 10.0 0.00 0.24 0.00 90 1001.6
20260506050503 52 48 5.0 10.0 0.00 0.24 0.00 90 1001.5
20260506050403 52 50 5.0 10.0 0.00 0.24 0.00 90 1001.5
20260506050303 52 51 5.0 10.0 0.00 0.24 0.00 90 1001.4
20260506050203 52 52 5.0 10.0 0.00 0.24 0.00 90 1001.4
20260506050103 52 52 5.0 10.0 0.00 0.24 0.00 90 1001.4
20260506045103 52 42 4.0 10.0 0.00 0.24 0.00 90 1001.6
20260506045003 52 41 4.0 10.0 0.00 0.24 0.00 90 1001.8
20260506044919 52 41 4.0 10.0 0.00 0.24 0.00 90 1001.8
20260506044903 52 40 4.0 10.0 0.00 0.24 0.00 90 1001.8
20260506044803 52 36 4.0 10.0 0.00 0.24 0.00 91 1001.6
20260506044603 52 36 4.0 10.0 0.00 0.24 0.00 91 1001.8
20260506044503 51 37 4.0 10.0 0.00 0.24 0.00 91 1001.7
20260506044403 51 38 4.0 10.0 0.00 0.24 0.00 91 1001.6
20260506044319 51 36 4.0 10.0 0.00 0.24 0.00 91 1001.6
20260506044303 51 37 4.0 10.0 0.00 0.24 0.00 91 1001.6
20260506044203 51 36 4.0 10.0 0.00 0.24 0.00 90 1001.5
20260506044003 51 29 5.0 15.0 0.00 0.24 0.00 91 1001.7
20260506043903 51 28 5.0 15.0 0.00 0.24 0.00 91 1001.5
20260506043803 51 26 5.0 15.0 0.00 0.24 0.00 91 1001.5
20260506043719 51 22 5.0 15.0 0.00 0.24 0.00 91 1001.7
20260506043703 51 21 5.0 15.0 0.00 0.24 0.00 91 1001.5
20260506043603 51 16 5.0 15.0 0.00 0.24 0.00 91 1001.7
20260506043403 51 5 5.0 15.0 0.00 0.24 0.00 91 1001.6
20260506043303 51 357 5.0 15.0 0.00 0.24 0.00 91 1001.5
20260506043203 51 352 4.0 15.0 0.00 0.24 0.00 91 1001.5
20260506043103 51 343 4.0 15.0 0.00 0.24 0.00 91 1001.6
20260506043003 51 336 4.0 15.0 0.00 0.24 0.00 91 1001.6
20260506042903 51 323 3.0 9.0 0.00 0.24 0.00 91 1001.4
20260506042803 51 334 3.0 6.0 0.00 0.24 0.00 91 1001.5
20260506042703 51 345 3.0 6.0 0.00 0.24 0.00 91 1001.5
20260506042603 51 352 3.0 6.0 0.00 0.24 0.00 91 1001.6
20260506042503 51 357 3.0 6.0 0.00 0.24 0.00 91 1001.6
20260506042403 51 1 3.0 6.0 0.00 0.24 0.00 91 1001.6
20260506042305 51 4 3.0 6.0 0.00 0.24 0.00 90 1001.7
20260506042203 51 3 3.0 6.0 0.00 0.24 0.00 90 1001.7
20260506042103 51 5 3.0 6.0 0.00 0.24 0.00 90 1001.6
20260506042003 51 5 3.0 6.0 0.00 0.24 0.00 90 1001.6
20260506041903 51 6 3.0 6.0 0.00 0.24 0.00 91 1001.6
20260506041816 51 7 3.0 6.0 0.00 0.24 0.00 91 1001.6
20260506041803 51 7 3.0 6.0 0.00 0.24 0.00 91 1001.7
20260506041703 51 8 3.0 6.0 0.00 0.24 0.00 91 1001.7
20260506041503 51 13 3.0 5.0 0.00 0.24 0.00 91 1001.7
20260506041418 51 12 3.0 5.0 0.00 0.24 0.00 91 1001.7
20260506041403 51 13 3.0 5.0 0.00 0.24 0.00 91 1001.7
20260506041317 51 12 2.0 4.0 0.00 0.24 0.00 91 1001.8
20260506041303 51 12 2.0 4.0 0.00 0.24 0.00 91 1001.8
20260506041003 51 17 2.0 4.0 0.00 0.24 0.00 91 1002.0
20260506040903 51 17 2.0 5.0 0.00 0.24 0.00 91 1002.0
20260506040803 51 18 2.0 5.0 0.00 0.24 0.00 91 1001.9
20260506040703 51 19 2.0 5.0 0.00 0.24 0.00 91 1001.9
20260506040603 51 19 2.0 5.0 0.00 0.24 0.00 91 1001.9
20260506040503 51 20 2.0 6.0 0.00 0.24 0.00 91 1001.7
20260506040422 51 21 2.0 6.0 0.00 0.24 0.00 91 1001.7
20260506040403 51 20 2.0 6.0 0.00 0.24 0.00 91 1001.7
20260506040303 51 23 2.0 6.0 0.00 0.24 0.00 91 1001.7
20260506040116 51 25 2.0 6.0 0.00 0.24 0.00 91 1001.9
20260506040003 51 25 3.0 6.0 0.00 0.24 0.00 91 1001.6
20260506035803 51 28 3.0 6.0 0.00 0.24 0.00 91 1001.9
20260506035703 51 29 3.0 6.0 0.00 0.24 0.00 91 1001.9
20260506035617 51 27 3.0 6.0 0.00 0.24 0.00 91 1001.9
20260506035603 51 28 3.0 6.0 0.00 0.24 0.00 91 1001.9
20260506035503 51 29 3.0 6.0 0.00 0.24 0.00 91 1001.9
20260506035305 51 29 3.0 7.0 0.00 0.24 0.00 91 1001.6
20260506035206 51 29 3.0 7.0 0.00 0.24 0.00 92 1001.8
20260506035003 51 27 3.0 7.0 0.00 0.24 0.00 92 1001.8
20260506034903 51 26 3.0 7.0 0.00 0.24 0.00 92 1001.7
20260506034803 51 25 3.0 7.0 0.00 0.24 0.00 92 1001.7
20260506034703 51 25 3.0 7.0 0.00 0.24 0.00 92 1001.7
20260506034603 51 27 3.0 7.0 0.00 0.24 0.00 92 1001.7
20260506034503 51 27 3.0 7.0 0.00 0.24 0.00 92 1001.8
20260506034416 51 27 3.0 7.0 0.00 0.24 0.00 92 1001.7
20260506034403 51 27 3.0 7.0 0.00 0.24 0.00 92 1001.8
20260506034303 51 27 3.0 7.0 0.00 0.24 0.00 92 1001.8
20260506034217 51 27 3.0 7.0 0.00 0.24 0.00 92 1002.0
20260506034103 51 27 3.0 6.0 0.00 0.24 0.00 92 1001.7
20260506033903 51 31 3.0 5.0 0.00 0.24 0.00 93 1001.8
20260506033820 51 32 3.0 5.0 0.00 0.24 0.00 93 1001.8
20260506033803 51 33 3.0 5.0 0.00 0.24 0.00 93 1001.8
20260506033703 51 32 2.0 5.0 0.00 0.24 0.00 93 1001.8
20260506033503 50 28 2.0 5.0 0.00 0.24 0.00 93 1001.9
20260506033403 50 27 2.0 5.0 0.00 0.24 0.00 93 1001.8
20260506033303 50 25 2.0 5.0 0.00 0.24 0.00 93 1001.8
20260506033203 50 27 2.0 5.0 0.00 0.24 0.00 93 1001.9
20260506033103 50 28 2.0 5.0 0.00 0.24 0.00 93 1001.9
20260506033016 50 27 2.0 4.0 0.00 0.24 0.00 93 1001.8
20260506033004 50 28 2.0 4.0 0.00 0.24 0.00 93 1001.8
20260506032919 50 28 2.0 4.0 0.00 0.24 0.00 93 1001.7
20260506032903 50 27 2.0 4.0 0.00 0.24 0.00 93 1001.9
20260506032818 50 27 2.0 4.0 0.00 0.24 0.00 93 1001.9
20260506032619 50 22 2.0 4.0 0.00 0.24 0.00 93 1001.8
20260506032503 50 24 2.0 4.0 0.00 0.24 0.00 94 1001.8
20260506032318 50 24 2.0 4.0 0.00 0.24 0.00 94 1002.0
20260506032305 50 25 2.0 4.0 0.00 0.24 0.00 94 1002.0
20260506032203 50 22 2.0 4.0 0.00 0.24 0.00 93 1001.9
20260506032018 50 20 2.0 3.0 0.00 0.24 0.00 93 1001.8
20260506032003 50 20 2.0 3.0 0.00 0.24 0.00 93 1001.7
20260506031903 50 19 2.0 4.0 0.00 0.24 0.00 93 1001.7
20260506031703 50 16 2.0 6.0 0.00 0.24 0.00 93 1001.7
20260506031617 50 16 2.0 6.0 0.00 0.24 0.00 93 1001.7
20260506031603 50 16 2.0 6.0 0.00 0.24 0.00 93 1001.7
20260506031503 50 15 2.0 6.0 0.00 0.24 0.00 93 1001.9
20260506031303 50 13 2.0 6.0 0.00 0.24 0.00 93 1001.7
20260506031203 50 15 2.0 6.0 0.00 0.24 0.00 93 1001.7
20260506031103 50 15 2.0 6.0 0.00 0.24 0.00 93 1001.7
20260506031003 49 18 2.0 6.0 0.00 0.24 0.00 93 1001.6
20260506030903 50 18 2.0 6.0 0.00 0.24 0.00 93 1001.6
20260506030803 50 19 2.0 6.0 0.00 0.24 0.00 93 1001.7
20260506030703 50 25 2.0 4.0 0.00 0.24 0.00 93 1001.7
20260506030603 50 27 2.0 4.0 0.00 0.24 0.00 93 1001.6
20260506030503 50 27 2.0 4.0 0.00 0.24 0.00 93 1001.9
20260506030403 49 30 2.0 4.0 0.00 0.24 0.00 93 1001.9
20260506030303 49 31 2.0 4.0 0.00 0.24 0.00 93 1001.8
20260506030203 49 34 2.0 4.0 0.00 0.24 0.00 93 1001.6
20260506030103 49 36 2.0 4.0 0.00 0.24 0.00 93 1001.8
20260506030003 50 39 2.0 4.0 0.00 0.24 0.00 93 1001.7
20260506025903 49 45 2.0 4.0 0.00 0.24 0.00 93 1001.7
20260506025803 50 46 2.0 6.0 0.00 0.24 0.00 93 1001.6
20260506025703 50 44 2.0 6.0 0.00 0.24 0.00 93 1001.6
20260506025603 50 42 2.0 6.0 0.00 0.24 0.00 93 1001.4
20260506025418 50 38 3.0 6.0 0.00 0.24 0.00 92 1001.7
20260506025403 50 37 3.0 6.0 0.00 0.24 0.00 92 1001.7
20260506025305 50 34 3.0 6.0 0.00 0.24 0.00 92 1001.6
20260506025219 50 32 3.0 6.0 0.00 0.24 0.00 92 1001.6
20260506025103 50 30 3.0 6.0 0.00 0.24 0.00 92 1001.6
20260506024903 50 24 3.0 7.0 0.00 0.24 0.00 92 1001.6
20260506024803 50 22 3.0 7.0 0.00 0.24 0.00 92 1001.4
20260506024703 50 19 3.0 7.0 0.00 0.24 0.00 92 1001.4
20260506024603 50 19 3.0 7.0 0.00 0.24 0.00 92 1001.2
20260506024503 50 21 3.0 7.0 0.00 0.24 0.00 92 1001.3
20260506024403 50 19 3.0 7.0 0.00 0.24 0.00 92 1001.3
20260506024303 50 22 3.0 7.0 0.00 0.24 0.00 93 1001.3
20260506024103 50 19 3.0 7.0 0.00 0.24 0.00 93 1001.3
20260506024003 50 18 3.0 7.0 0.00 0.24 0.00 92 1001.5
20260506023903 50 19 3.0 7.0 0.00 0.24 0.00 92 1001.5
20260506023803 50 20 3.0 6.0 0.00 0.24 0.00 92 1001.4
20260506023603 50 20 3.0 6.0 0.00 0.24 0.00 93 1001.2
20260506023519 50 20 3.0 6.0 0.00 0.24 0.00 93 1001.2
20260506023503 50 19 3.0 6.0 0.00 0.24 0.00 93 1001.2
20260506023316 50 21 3.0 6.0 0.00 0.24 0.00 93 1001.3
20260506023203 50 19 3.0 6.0 0.00 0.24 0.00 93 1001.3
20260506023003 50 15 3.0 6.0 0.00 0.24 0.00 93 1001.4
20260506022903 50 14 3.0 6.0 0.00 0.24 0.00 93 1001.4
20260506022703 50 13 3.0 6.0 0.00 0.24 0.00 93 1001.5
20260506022603 50 14 3.0 6.0 0.00 0.24 0.00 92 1001.5
20260506022503 50 12 3.0 6.0 0.00 0.24 0.00 93 1001.5
20260506022403 50 11 3.0 6.0 0.00 0.24 0.00 92 1001.5
20260506022305 50 9 3.0 6.0 0.00 0.24 0.00 93 1001.7
20260506022103 50 14 2.0 5.0 0.00 0.24 0.00 93 1001.5
20260506022003 50 17 2.0 5.0 0.00 0.24 0.00 93 1001.5
20260506021903 50 18 2.0 6.0 0.00 0.24 0.00 93 1001.7
20260506021803 50 17 2.0 6.0 0.00 0.24 0.00 92 1001.7
20260506021703 50 16 2.0 6.0 0.00 0.24 0.00 92 1001.6
20260506021503 51 17 2.0 6.0 0.00 0.24 0.00 92 1001.5
20260506021403 51 20 2.0 6.0 0.00 0.24 0.00 92 1001.5
20260506021303 51 21 2.0 6.0 0.00 0.24 0.00 92 1001.5
20260506021203 51 20 2.0 6.0 0.00 0.24 0.00 92 1001.8
20260506021016 51 23 2.0 6.0 0.00 0.24 0.00 92 1001.6
20260506021003 51 22 2.0 6.0 0.00 0.24 0.00 92 1001.6
20260506020903 51 24 3.0 6.0 0.00 0.24 0.00 92 1001.6
20260506020703 51 29 2.0 5.0 0.00 0.24 0.00 92 1001.6
20260506020603 51 30 2.0 5.0 0.00 0.24 0.00 92 1001.6
20260506020503 51 32 2.0 5.0 0.00 0.24 0.00 92 1001.6
20260506020403 51 31 3.0 5.0 0.00 0.24 0.00 92 1001.7
20260506020303 51 31 3.0 5.0 0.00 0.24 0.00 92 1001.6
20260506020203 51 31 3.0 5.0 0.00 0.24 0.00 92 1001.6
20260506020103 51 32 3.0 5.0 0.00 0.24 0.00 92 1001.7
20260506020003 51 32 3.0 5.0 0.00 0.24 0.00 92 1001.7
20260506015903 51 32 3.0 5.0 0.00 0.24 0.00 91 1001.7
20260506015819 51 30 3.0 5.0 0.00 0.24 0.00 91 1001.5
20260506015803 51 29 3.0 5.0 0.00 0.24 0.00 91 1001.7
20260506015703 51 32 2.0 6.0 0.00 0.24 0.00 91 1001.7
20260506015503 51 27 3.0 6.0 0.00 0.24 0.00 91 1001.7
20260506015403 51 25 3.0 6.0 0.00 0.24 0.00 91 1001.4
20260506015305 51 26 3.0 6.0 0.00 0.24 0.00 91 1001.4
20260506015203 51 28 3.0 6.0 0.00 0.24 0.00 91 1001.6
20260506015103 51 26 3.0 6.0 0.00 0.24 0.00 91 1001.6
20260506015003 51 23 3.0 6.0 0.00 0.24 0.00 91 1001.3
20260506014903 52 24 3.0 6.0 0.00 0.24 0.00 91 1001.4
20260506014803 52 23 3.0 9.0 0.00 0.24 0.00 91 1001.4
20260506014703 52 21 3.0 10.0 0.00 0.24 0.00 91 1001.4
20260506014603 52 21 3.0 10.0 0.00 0.24 0.00 91 1001.6
20260506014503 52 18 3.0 10.0 0.00 0.24 0.00 91 1001.6
20260506014403 52 19 3.0 10.0 0.00 0.24 0.00 91 1001.5
20260506014303 52 16 3.0 10.0 0.00 0.24 0.00 91 1001.5
20260506014203 52 16 3.0 10.0 0.00 0.24 0.00 91 1001.4
20260506014103 52 16 3.0 10.0 0.00 0.24 0.00 91 1001.4
20260506014003 52 17 3.0 10.0 0.00 0.24 0.00 91 1001.5
20260506013903 52 18 3.0 10.0 0.00 0.24 0.00 91 1001.5
20260506013803 52 17 4.0 10.0 0.00 0.24 0.00 91 1001.5
20260506013703 52 15 4.0 10.0 0.00 0.24 0.00 91 1001.5
20260506013603 52 16 4.0 10.0 0.00 0.24 0.00 92 1001.2
20260506013503 52 18 4.0 8.0 0.00 0.24 0.00 92 1001.4
20260506013417 52 19 4.0 8.0 0.00 0.24 0.00 92 1001.4
20260506013403 52 19 4.0 9.0 0.00 0.24 0.00 91 1001.4
20260506013303 52 22 4.0 9.0 0.00 0.24 0.00 91 1001.4
20260506013103 52 21 4.0 12.0 0.00 0.24 0.00 92 1001.5
20260506013016 52 20 4.0 12.0 0.00 0.24 0.00 91 1001.2
20260506013003 52 20 4.0 12.0 0.00 0.24 0.00 91 1001.4
20260506012918 52 20 4.0 12.0 0.00 0.24 0.00 92 1001.4
20260506012903 52 20 4.0 12.0 0.00 0.24 0.00 92 1001.3
20260506012603 52 23 4.0 12.0 0.00 0.24 0.00 92 1001.4
20260506012503 52 23 4.0 12.0 0.00 0.24 0.00 92 1001.3
20260506012403 52 21 4.0 12.0 0.00 0.24 0.00 92 1001.4
20260506012318 52 20 4.0 12.0 0.00 0.24 0.00 92 1001.4
20260506012307 52 21 4.0 12.0 0.00 0.24 0.00 92 1001.4
20260506012203 52 22 4.0 12.0 0.00 0.24 0.00 92 1001.5
20260506012003 52 19 4.0 8.0 0.00 0.24 0.00 92 1001.4
20260506011903 52 18 4.0 8.0 0.00 0.24 0.00 92 1001.5
20260506011803 52 19 4.0 8.0 0.00 0.24 0.00 92 1001.5
20260506011703 53 17 4.0 8.0 0.00 0.24 0.00 92 1001.4
20260506011616 53 15 4.0 8.0 0.00 0.24 0.00 92 1001.4
20260506011603 53 14 4.0 8.0 0.00 0.24 0.00 92 1001.4
20260506011504 53 14 4.0 8.0 0.00 0.24 0.00 92 1001.7
20260506011303 53 13 4.0 8.0 0.00 0.24 0.00 92 1001.3
20260506011203 53 11 4.0 8.0 0.00 0.24 0.00 93 1001.5
20260506011103 53 12 4.0 8.0 0.00 0.24 0.00 93 1001.5
20260506011003 53 12 3.0 8.0 0.00 0.24 0.00 93 1001.5
20260506010903 53 13 3.0 8.0 0.00 0.24 0.00 93 1001.6
20260506010803 53 12 4.0 8.0 0.00 0.24 0.00 93 1001.6
20260506010703 53 17 4.0 8.0 0.00 0.24 0.00 93 1001.4
20260506010603 53 20 4.0 8.0 0.00 0.24 0.00 94 1001.5
20260506010516 53 20 4.0 8.0 0.00 0.24 0.00 94 1001.5
20260506010503 53 20 3.0 9.0 0.00 0.24 0.00 94 1001.5
20260506010403 53 22 3.0 9.0 0.00 0.24 0.00 94 1001.5
20260506010203 53 22 4.0 9.0 0.00 0.24 0.00 94 1001.5
20260506010119 53 21 4.0 9.0 0.00 0.24 0.00 94 1001.5
20260506010103 53 20 4.0 9.0 0.00 0.24 0.00 94 1001.3
20260506010017 53 18 4.0 9.0 0.00 0.24 0.00 94 1001.3
20260506010003 53 19 4.0 9.0 0.00 0.24 0.00 94 1001.3
20260506005703 53 19 4.0 9.0 0.00 0.24 0.00 95 1001.3
20260506005603 53 17 4.0 9.0 0.00 0.24 0.00 95 1001.3
20260506005503 53 17 4.0 9.0 0.00 0.24 0.00 95 1001.4
20260506005403 53 16 4.0 9.0 0.00 0.24 0.00 95 1001.4
20260506005305 53 14 4.0 8.0 0.00 0.24 0.00 95 1001.2
20260506005203 53 17 3.0 8.0 0.00 0.24 0.00 95 1001.6
20260506005103 53 17 3.0 8.0 0.00 0.24 0.00 95 1001.6
20260506005019 53 18 3.0 8.0 0.00 0.24 0.00 95 1001.6
20260506005003 53 18 3.0 8.0 0.00 0.24 0.00 95 1001.4
20260506004903 53 18 3.0 8.0 0.00 0.24 0.00 95 1001.4
20260506004703 53 16 3.0 8.0 0.00 0.24 0.00 95 1001.5
20260506004603 53 17 3.0 7.0 0.00 0.24 0.00 95 1001.6
20260506004504 54 16 3.0 7.0 0.00 0.24 0.00 95 1001.4
20260506004403 54 16 3.0 7.0 0.00 0.24 0.00 95 1001.4
20260506004303 54 14 3.0 7.0 0.00 0.24 0.00 96 1001.4
20260506004203 54 14 3.0 8.0 0.00 0.24 0.00 96 1001.4
20260506004103 54 15 4.0 8.0 0.00 0.24 0.00 96 1001.5
20260506004003 54 14 4.0 8.0 0.00 0.24 0.00 96 1001.5
20260506003916 54 12 4.0 8.0 0.00 0.24 0.00 96 1001.4
20260506003903 54 12 4.0 8.0 0.00 0.24 0.00 96 1001.5
20260506003803 54 13 4.0 8.0 0.00 0.24 0.00 96 1001.5
20260506003603 54 11 4.0 8.0 0.00 0.24 0.00 96 1001.4
20260506003503 54 10 4.0 8.0 0.00 0.24 0.00 96 1001.5
20260506003303 54 10 4.0 8.0 0.00 0.24 0.00 96 1001.4
20260506003203 54 8 4.0 8.0 0.00 0.24 0.00 96 1001.4
20260506003103 54 7 4.0 8.0 0.00 0.24 0.00 96 1001.4
20260506003003 54 6 3.0 8.0 0.00 0.24 0.00 96 1001.6
20260506002918 54 7 4.0 8.0 0.00 0.24 0.00 96 1001.3
20260506002816 54 5 4.0 8.0 0.00 0.24 0.00 96 1001.5
20260506002803 54 4 4.0 8.0 0.00 0.24 0.00 96 1001.5
20260506002516 54 2 4.0 8.0 0.00 0.24 0.00 96 1001.4
20260506002503 54 2 4.0 8.0 0.00 0.24 0.00 96 1001.3
20260506002403 54 2 4.0 8.0 0.00 0.24 0.00 96 1001.3
20260506002203 55 3 3.0 8.0 0.00 0.24 0.00 96 1001.5
20260506002103 55 3 3.0 8.0 0.00 0.24 0.00 96 1001.5
20260506002003 55 3 3.0 8.0 0.00 0.24 0.00 96 1001.4
20260506001903 55 4 3.0 6.0 0.00 0.24 0.00 96 1001.4
20260506001803 55 4 2.0 6.0 0.00 0.24 0.00 96 1001.5
20260506001703 55 2 2.0 6.0 0.00 0.24 0.00 96 1001.3
20260506001603 55 1 2.0 6.0 0.00 0.24 0.00 96 1001.3
20260506001503 55 1 2.0 8.0 0.00 0.24 0.00 96 1001.4
20260506001403 55 358 3.0 8.0 0.00 0.24 0.00 97 1001.4
20260506001303 55 356 3.0 8.0 0.00 0.24 0.00 97 1001.4
20260506001218 55 357 3.0 8.0 0.00 0.24 0.00 97 1001.5
20260506001203 55 357 3.0 8.0 0.00 0.24 0.00 97 1001.4
20260506000903 55 356 4.0 8.0 0.00 0.24 0.00 97 1001.5
20260506000803 55 355 4.0 8.0 0.00 0.24 0.00 97 1001.3
20260506000703 55 357 4.0 8.0 0.00 0.24 0.00 97 1001.4
20260506000603 55 358 4.0 8.0 0.00 0.24 0.00 97 1001.4
20260506000503 55 357 4.0 8.0 0.00 0.24 0.00 97 1001.4
20260506000403 55 360 4.0 8.0 0.00 0.24 0.00 97 1001.5
20260506000303 55 360 4.0 8.0 0.00 0.24 0.00 97 1001.5
20260506000204 55 358 4.0 8.0 0.00 0.24 0.00 97 1001.2
20260506000004 55 359 4.0 8.0 0.00 0.24 0.00 97 1001.4
20260505235903 55 360 4.0 8.0 0.00 0.24 0.24 97 1001.3
20260505235803 55 1 3.0 8.0 0.00 0.24 0.24 97 1001.4
20260505235703 55 2 3.0 8.0 0.00 0.24 0.24 97 1001.4
20260505235603 55 2 3.0 8.0 0.00 0.24 0.24 97 1001.5
20260505235503 55 4 3.0 8.0 0.00 0.24 0.24 97 1001.5
20260505235403 55 4 3.0 9.0 0.00 0.24 0.24 97 1001.4
20260505235305 55 5 3.0 9.0 0.00 0.24 0.24 97 1001.4
20260505235203 55 7 3.0 9.0 0.00 0.24 0.24 97 1001.4
20260505235103 55 6 3.0 9.0 0.00 0.24 0.24 97 1001.3
20260505235003 55 6 4.0 9.0 0.00 0.24 0.24 97 1001.3
20260505234903 55 7 4.0 9.0 0.00 0.24 0.24 97 1001.4
20260505234816 55 6 4.0 9.0 0.00 0.24 0.24 97 1001.4
20260505234803 55 8 4.0 9.0 0.00 0.24 0.24 97 1001.5
20260505234703 55 8 4.0 9.0 0.00 0.24 0.24 97 1001.5
20260505234503 55 6 4.0 9.0 0.00 0.24 0.24 97 1001.3
20260505234403 55 6 4.0 10.0 0.00 0.24 0.24 97 1001.3
20260505234303 55 6 4.0 10.0 0.00 0.24 0.24 97 1001.5
20260505234203 55 6 4.0 10.0 0.00 0.24 0.24 97 1001.5
20260505234103 55 4 4.0 10.0 0.00 0.24 0.24 97 1001.5
20260505233903 55 4 4.0 10.0 0.00 0.24 0.24 97 1001.4
20260505233803 55 1 4.0 10.0 0.00 0.24 0.24 97 1001.5
20260505233703 55 2 4.0 10.0 0.00 0.24 0.24 97 1001.6
20260505233603 55 1 4.0 10.0 0.00 0.24 0.24 97 1001.6
20260505233503 55 2 4.0 10.0 0.00 0.24 0.24 97 1001.2
20260505233403 55 3 4.0 10.0 0.00 0.24 0.24 97 1001.4
20260505233303 55 2 3.0 10.0 0.00 0.24 0.24 97 1001.4
20260505233203 55 2 3.0 8.0 0.00 0.24 0.24 97 1001.5
20260505233103 55 2 3.0 8.0 0.00 0.24 0.24 97 1001.5
20260505233003 55 2 3.0 8.0 0.00 0.24 0.24 97 1001.2
20260505232903 55 1 3.0 9.0 0.00 0.24 0.24 97 1001.3
20260505232803 55 1 3.0 9.0 0.00 0.24 0.24 97 1001.3
20260505232703 55 359 3.0 9.0 0.00 0.24 0.24 97 1001.4
20260505232503 55 357 3.0 9.0 0.00 0.24 0.24 97 1001.5
20260505232403 55 356 3.0 9.0 0.00 0.24 0.24 97 1001.4
20260505232305 55 354 3.0 9.0 0.00 0.24 0.24 97 1001.4
20260505232203 55 355 3.0 9.0 0.00 0.24 0.24 97 1001.3
20260505232103 55 355 3.0 9.0 0.00 0.24 0.24 97 1001.3
20260505232003 55 355 3.0 9.0 0.00 0.24 0.24 97 1001.3
20260505231903 55 355 3.0 9.0 0.00 0.24 0.24 97 1001.6
20260505231803 55 357 3.0 9.0 0.00 0.24 0.24 97 1001.6
20260505231703 55 358 3.0 9.0 0.00 0.24 0.24 97 1001.3
20260505231619 55 357 3.0 9.0 0.00 0.24 0.24 97 1001.3
20260505231603 55 359 3.0 9.0 0.00 0.24 0.24 97 1001.4
20260505231503 55 359 3.0 9.0 0.00 0.24 0.24 97 1001.4
20260505231303 55 3 3.0 9.0 0.00 0.24 0.24 97 1001.4
20260505231203 55 2 4.0 9.0 0.00 0.24 0.24 97 1001.4
20260505231116 55 3 4.0 9.0 0.00 0.24 0.24 97 1001.5
20260505231103 55 3 4.0 9.0 0.00 0.24 0.24 97 1001.4
20260505231003 55 5 4.0 9.0 0.00 0.24 0.24 97 1001.4
20260505230803 55 5 4.0 9.0 0.00 0.24 0.24 97 1001.3
20260505230703 55 5 4.0 9.0 0.00 0.24 0.24 97 1001.3
20260505230603 55 8 4.0 8.0 0.00 0.24 0.24 97 1001.5
20260505230503 55 11 4.0 8.0 0.00 0.24 0.24 97 1001.5
20260505230403 55 13 3.0 8.0 0.00 0.24 0.24 97 1001.5
20260505230303 55 12 4.0 8.0 0.00 0.24 0.24 97 1001.3
20260505230203 55 13 3.0 8.0 0.00 0.24 0.24 97 1001.6
20260505230003 55 12 3.0 7.0 0.00 0.24 0.24 97 1001.4
20260505225903 55 14 3.0 7.0 0.00 0.24 0.24 97 1001.5
20260505225803 55 13 3.0 7.0 0.00 0.24 0.24 97 1001.8
20260505225703 55 15 3.0 7.0 0.00 0.24 0.24 97 1001.8
20260505225603 55 15 3.0 7.0 0.00 0.24 0.24 97 1001.5
20260505225504 55 14 3.0 7.0 0.00 0.24 0.24 97 1001.7
20260505225403 55 15 3.0 7.0 0.00 0.24 0.24 97 1001.7
20260505225305 55 14 3.0 7.0 0.00 0.24 0.24 97 1001.5
20260505225203 55 15 3.0 7.0 0.00 0.24 0.24 97 1001.5
20260505225103 55 15 3.0 6.0 0.00 0.24 0.24 97 1001.5
20260505225003 55 16 3.0 6.0 0.00 0.24 0.24 97 1001.6
20260505224917 55 17 3.0 6.0 0.00 0.24 0.24 97 1001.6
20260505224803 55 18 3.0 6.0 0.00 0.24 0.24 97 1001.5
20260505224603 55 14 3.0 6.0 0.00 0.24 0.24 97 1001.5
20260505224503 55 17 3.0 6.0 0.00 0.24 0.24 97 1001.5
20260505224403 55 13 3.0 6.0 0.00 0.24 0.24 97 1001.8
20260505224303 55 14 2.0 6.0 0.00 0.24 0.24 97 1001.8
20260505224219 55 14 2.0 6.0 0.00 0.24 0.24 97 1001.8
20260505224203 55 13 2.0 6.0 0.00 0.24 0.24 97 1001.8
20260505224103 55 12 2.0 6.0 0.00 0.24 0.24 97 1001.7
20260505223919 55 12 2.0 6.0 0.00 0.24 0.24 97 1001.8
20260505223903 55 11 2.0 6.0 0.00 0.24 0.24 97 1001.6
20260505223803 55 12 2.0 7.0 0.00 0.24 0.24 97 1001.6
20260505223603 55 13 2.0 7.0 0.00 0.24 0.24 97 1001.8
20260505223503 55 9 2.0 7.0 0.00 0.24 0.24 97 1001.8
20260505223403 55 8 3.0 7.0 0.00 0.24 0.24 97 1001.8
20260505223303 55 7 3.0 7.0 0.00 0.24 0.24 97 1001.7
20260505223203 55 6 3.0 7.0 0.00 0.24 0.24 97 1001.7
20260505223103 55 8 3.0 7.0 0.00 0.24 0.24 97 1001.7
20260505223018 55 6 3.0 7.0 0.00 0.24 0.24 97 1001.7
20260505223003 55 5 3.0 7.0 0.00 0.24 0.24 97 1001.8
20260505222903 55 5 3.0 7.0 0.00 0.24 0.24 97 1001.8
20260505222603 56 3 3.0 6.0 0.00 0.24 0.24 97 1001.8
20260505222503 56 4 3.0 6.0 0.00 0.24 0.24 97 1001.8
20260505222403 56 4 3.0 6.0 0.00 0.24 0.24 97 1001.8
20260505222305 56 4 3.0 6.0 0.00 0.24 0.24 97 1002.0
20260505222219 56 5 3.0 6.0 0.00 0.24 0.24 97 1002.0
20260505222203 56 5 3.0 6.0 0.00 0.24 0.24 97 1002.1
20260505222103 56 4 3.0 6.0 0.00 0.24 0.24 97 1002.1
20260505221903 56 4 3.0 6.0 0.00 0.24 0.24 97 1002.2
20260505221803 56 2 3.0 6.0 0.00 0.24 0.24 97 1001.9
20260505221703 55 2 3.0 6.0 0.00 0.24 0.24 97 1001.9
20260505221619 56 4 2.0 6.0 0.00 0.24 0.24 97 1002.0
20260505221604 56 4 2.0 5.0 0.00 0.24 0.24 97 1002.0
20260505221503 56 4 2.0 5.0 0.00 0.24 0.24 97 1002.2
20260505221416 56 6 2.0 5.0 0.00 0.24 0.24 97 1002.2
20260505221303 56 8 3.0 5.0 0.00 0.24 0.24 97 1001.9
20260505221103 56 12 3.0 5.0 0.00 0.24 0.24 97 1002.2
20260505221003 56 15 2.0 5.0 0.00 0.24 0.24 97 1002.1
20260505220903 56 16 2.0 5.0 0.00 0.24 0.24 97 1002.1
20260505220803 56 16 2.0 5.0 0.00 0.24 0.24 97 1002.2
20260505220703 56 15 2.0 6.0 0.00 0.24 0.24 97 1002.1
20260505220603 56 12 2.0 6.0 0.00 0.24 0.24 97 1002.1
20260505220503 56 11 3.0 6.0 0.00 0.24 0.24 97 1002.3
20260505220403 56 10 3.0 6.0 0.00 0.24 0.24 97 1002.3
20260505220303 56 8 3.0 6.0 0.00 0.24 0.24 97 1002.2
20260505220203 56 7 2.0 6.0 0.00 0.24 0.24 97 1002.4
20260505220103 56 8 3.0 6.0 0.00 0.24 0.24 97 1002.4
20260505220003 56 8 3.0 6.0 0.00 0.24 0.24 97 1002.1
20260505215903 56 6 3.0 6.0 0.00 0.24 0.24 97 1002.3
20260505215803 56 6 3.0 6.0 0.00 0.24 0.24 97 1002.3
20260505215703 56 5 3.0 6.0 0.00 0.24 0.24 97 1002.2
20260505215603 56 5 3.0 6.0 0.00 0.24 0.24 97 1002.2
20260505215503 56 5 3.0 6.0 0.00 0.24 0.24 96 1002.3
20260505215403 56 5 3.0 6.0 0.00 0.24 0.24 96 1002.2
20260505215305 56 4 3.0 6.0 0.00 0.24 0.24 96 1002.2
20260505215203 56 3 3.0 6.0 0.00 0.24 0.24 96 1002.3
20260505215103 56 1 3.0 6.0 0.00 0.24 0.24 96 1002.2
20260505215003 56 1 3.0 6.0 0.00 0.24 0.24 96 1002.2
20260505214903 56 2 3.0 6.0 0.00 0.24 0.24 96 1002.2
20260505214803 56 3 3.0 6.0 0.00 0.24 0.24 96 1002.2
20260505214703 56 4 3.0 6.0 0.00 0.24 0.24 96 1002.1
20260505214617 56 360 3.0 8.0 0.00 0.24 0.24 96 1002.1
20260505214603 56 1 3.0 8.0 0.00 0.24 0.24 96 1002.2
20260505214503 56 360 3.0 8.0 0.00 0.24 0.24 96 1002.2
20260505214303 56 355 3.0 8.0 0.00 0.24 0.24 96 1002.1
20260505214203 56 353 4.0 8.0 0.00 0.24 0.24 96 1002.2
20260505214103 56 353 3.0 8.0 0.00 0.24 0.24 96 1002.2
20260505214003 56 353 3.0 8.0 0.00 0.24 0.24 96 1001.9
20260505213903 56 351 4.0 8.0 0.00 0.24 0.24 96 1002.1
20260505213817 56 351 4.0 8.0 0.00 0.24 0.24 96 1002.1
20260505213803 56 352 4.0 8.0 0.00 0.24 0.24 96 1002.1
20260505213703 56 350 4.0 8.0 0.00 0.24 0.24 96 1002.2
20260505213503 56 352 4.0 10.0 0.00 0.24 0.24 96 1002.0
20260505213403 56 353 3.0 10.0 0.00 0.24 0.24 96 1002.2
20260505213303 56 357 3.0 10.0 0.00 0.24 0.24 97 1002.2
20260505213217 56 358 3.0 10.0 0.00 0.24 0.24 97 1002.0
20260505213203 56 358 3.0 10.0 0.00 0.24 0.24 96 1002.0
20260505213103 56 359 3.0 10.0 0.00 0.24 0.24 96 1002.2
20260505212917 56 358 3.0 10.0 0.00 0.24 0.24 97 1002.2
20260505212903 56 358 3.0 10.0 0.00 0.24 0.24 97 1002.0
20260505212820 56 359 3.0 10.0 0.00 0.24 0.24 97 1002.0
20260505212803 56 358 3.0 10.0 0.00 0.24 0.24 97 1002.1
20260505212616 56 357 3.0 10.0 0.00 0.24 0.24 97 1002.1
20260505212503 56 357 3.0 10.0 0.00 0.24 0.24 97 1002.0
20260505212418 56 357 3.0 10.0 0.00 0.24 0.24 97 1002.3
20260505212103 56 353 3.0 7.0 0.00 0.24 0.24 97 1002.2
20260505212003 56 353 3.0 7.0 0.00 0.24 0.24 97 1002.1
20260505211903 56 353 3.0 7.0 0.00 0.24 0.24 97 1002.1
20260505211803 56 353 3.0 7.0 0.00 0.24 0.24 97 1002.3
20260505211703 56 355 3.0 6.0 0.00 0.24 0.24 97 1002.3
20260505211603 56 355 3.0 6.0 0.00 0.24 0.24 97 1002.1
20260505211503 56 355 3.0 6.0 0.00 0.24 0.24 97 1002.1
20260505211403 56 353 3.0 7.0 0.00 0.24 0.24 97 1002.1
20260505211303 56 354 3.0 7.0 0.00 0.24 0.24 97 1002.1
20260505211203 56 352 3.0 7.0 0.00 0.24 0.24 97 1002.0
20260505211103 56 352 3.0 8.0 0.00 0.24 0.24 97 1002.0
20260505211003 56 351 3.0 8.0 0.00 0.24 0.24 97 1002.2
20260505210903 56 351 3.0 8.0 0.00 0.24 0.24 97 1002.2
20260505210803 56 350 4.0 8.0 0.00 0.24 0.24 97 1002.0
20260505210603 56 350 4.0 8.0 0.00 0.24 0.24 97 1002.0
20260505210503 56 350 4.0 8.0 0.00 0.24 0.24 98 1002.2
20260505210403 56 351 4.0 8.0 0.00 0.24 0.24 97 1002.1
20260505210303 56 352 4.0 8.0 0.00 0.24 0.24 98 1002.1
20260505210203 56 351 4.0 8.0 0.00 0.24 0.24 97 1002.2
20260505210103 56 352 4.0 8.0 0.00 0.24 0.24 97 1002.2
20260505210003 56 352 4.0 8.0 0.00 0.24 0.24 97 1002.2
20260505205903 56 353 3.0 6.0 0.00 0.24 0.24 97 1002.1
20260505205803 56 353 3.0 6.0 0.00 0.24 0.24 97 1002.1
20260505205703 56 354 3.0 6.0 0.00 0.24 0.24 97 1002.2
20260505205603 56 354 3.0 6.0 0.00 0.24 0.24 97 1002.2
20260505205503 56 354 3.0 5.0 0.00 0.24 0.24 97 1002.2
20260505205403 56 353 3.0 5.0 0.00 0.24 0.24 97 1002.2
20260505205305 56 352 3.0 5.0 0.00 0.24 0.24 97 1002.2
20260505205203 56 352 3.0 5.0 0.00 0.24 0.24 97 1002.5
20260505205103 56 353 2.0 5.0 0.00 0.24 0.24 97 1002.2
20260505205003 56 352 2.0 5.0 0.00 0.24 0.24 97 1002.4
20260505204903 56 353 2.0 5.0 0.00 0.24 0.24 97 1002.3
20260505204803 56 351 2.0 4.0 0.00 0.24 0.24 97 1002.3
20260505204703 56 351 2.0 4.0 0.00 0.24 0.24 97 1002.1
20260505204603 56 350 2.0 4.0 0.00 0.24 0.24 97 1002.2
20260505204503 56 349 3.0 4.0 0.00 0.24 0.24 97 1002.2
20260505204403 56 348 3.0 4.0 0.00 0.24 0.24 97 1002.1
20260505204303 56 348 3.0 4.0 0.00 0.24 0.24 97 1002.1
20260505204203 56 344 3.0 5.0 0.00 0.24 0.24 97 1002.1
20260505204003 56 340 3.0 5.0 0.00 0.24 0.24 97 1002.3
20260505203903 55 339 3.0 5.0 0.00 0.24 0.24 97 1002.1
20260505203803 55 338 3.0 5.0 0.00 0.24 0.24 96 1002.1
20260505203703 55 337 3.0 5.0 0.00 0.24 0.24 96 1002.1
20260505203603 55 335 3.0 5.0 0.00 0.24 0.24 96 1002.0
20260505203517 55 335 3.0 5.0 0.00 0.24 0.24 96 1002.0
20260505203503 55 336 3.0 5.0 0.00 0.24 0.24 96 1002.0
20260505203419 56 336 3.0 5.0 0.00 0.24 0.24 96 1002.3
20260505203403 56 337 3.0 5.0 0.00 0.24 0.24 96 1002.1
20260505203103 56 343 3.0 5.0 0.00 0.24 0.24 96 1002.0
20260505203003 56 345 3.0 5.0 0.00 0.24 0.24 96 1002.0
20260505202903 56 346 3.0 5.0 0.00 0.24 0.24 96 1002.1
20260505202803 56 346 3.0 5.0 0.00 0.24 0.24 96 1002.1
20260505202718 56 348 2.0 5.0 0.00 0.24 0.24 96 1002.0
20260505202703 56 349 2.0 5.0 0.00 0.24 0.24 96 1002.1
20260505202616 55 351 2.0 5.0 0.00 0.24 0.24 95 1002.1
20260505202603 55 351 2.0 5.0 0.00 0.24 0.24 95 1002.2
20260505202306 56 348 2.0 4.0 0.00 0.24 0.24 96 1002.1
20260505202218 56 347 2.0 4.0 0.00 0.24 0.24 96 1002.1
20260505202203 56 346 2.0 4.0 0.00 0.24 0.24 96 1002.0
20260505202103 56 344 2.0 4.0 0.00 0.24 0.24 96 1001.8
20260505201903 56 345 2.0 4.0 0.00 0.24 0.24 95 1001.9
20260505201803 56 345 2.0 4.0 0.00 0.24 0.24 95 1001.9
20260505201703 56 345 2.0 4.0 0.00 0.24 0.24 95 1001.9
20260505201603 56 347 2.0 4.0 0.00 0.24 0.24 96 1002.0
20260505201505 56 348 2.0 4.0 0.00 0.24 0.24 95 1001.9
20260505201403 56 350 2.0 4.0 0.00 0.24 0.24 96 1001.9
20260505201303 56 353 2.0 4.0 0.00 0.24 0.24 95 1002.1
20260505201203 56 357 2.0 4.0 0.00 0.24 0.24 95 1002.0
20260505201103 56 359 2.0 4.0 0.00 0.24 0.24 95 1002.0
20260505201003 56 1 2.0 4.0 0.00 0.24 0.24 95 1002.1
20260505200903 56 4 2.0 4.0 0.00 0.24 0.24 95 1001.9
20260505200803 56 5 2.0 4.0 0.00 0.24 0.24 95 1001.9
20260505200703 56 5 2.0 4.0 0.00 0.24 0.24 95 1001.9
20260505200503 56 5 2.0 4.0 0.00 0.24 0.24 95 1001.9
20260505200403 56 5 2.0 4.0 0.00 0.24 0.24 95 1002.0
20260505200303 56 5 2.0 4.0 0.00 0.24 0.24 94 1002.0
20260505200203 56 5 2.0 4.0 0.00 0.24 0.24 94 1002.1
20260505200003 57 9 2.0 4.0 0.00 0.24 0.24 95 1002.2
20260505195903 56 11 2.0 4.0 0.00 0.24 0.24 94 1002.1
20260505195803 57 11 2.0 4.0 0.00 0.24 0.24 94 1001.9
20260505195719 57 13 2.0 4.0 0.00 0.24 0.24 94 1001.9
20260505195703 57 12 2.0 4.0 0.00 0.24 0.24 94 1001.9
20260505195603 57 13 2.0 4.0 0.00 0.24 0.24 94 1002.0
20260505195403 57 13 2.0 4.0 0.00 0.24 0.24 95 1002.0
20260505195305 57 13 2.0 4.0 0.00 0.24 0.24 95 1002.1
20260505195216 57 12 2.0 4.0 0.00 0.24 0.24 95 1002.1
20260505195203 57 12 2.0 4.0 0.00 0.24 0.24 95 1001.9
20260505195103 57 12 2.0 4.0 0.00 0.24 0.24 94 1001.9
20260505194903 57 11 2.0 4.0 0.00 0.24 0.24 94 1002.0
20260505194803 57 11 2.0 4.0 0.00 0.24 0.24 94 1001.7
20260505194703 57 10 2.0 4.0 0.00 0.24 0.24 94 1001.7
20260505194603 57 9 2.0 5.0 0.00 0.24 0.24 94 1001.9
20260505194503 57 10 2.0 5.0 0.00 0.24 0.24 95 1001.9
20260505194403 57 10 3.0 5.0 0.00 0.24 0.24 95 1001.9
20260505194103 57 14 2.0 5.0 0.00 0.24 0.24 95 1002.0
20260505194003 57 15 2.0 5.0 0.00 0.24 0.24 95 1001.8
20260505193903 57 17 2.0 5.0 0.00 0.24 0.24 95 1001.7
20260505193803 57 18 2.0 5.0 0.00 0.24 0.24 95 1001.8
20260505193719 57 19 2.0 5.0 0.00 0.24 0.24 95 1001.8
20260505193703 57 18 2.0 5.0 0.00 0.24 0.24 95 1001.8
20260505193603 57 21 2.0 5.0 0.00 0.24 0.24 95 1002.0
20260505193403 57 22 2.0 5.0 0.00 0.24 0.24 95 1001.7
20260505193303 57 20 2.0 5.0 0.00 0.24 0.24 95 1001.8
20260505193203 58 18 2.0 5.0 0.00 0.24 0.24 95 1001.8
20260505193103 58 15 2.0 5.0 0.00 0.24 0.24 96 1001.9
20260505193003 58 12 2.0 5.0 0.00 0.24 0.24 96 1001.6
20260505192903 58 10 2.0 5.0 0.00 0.24 0.24 96 1001.9
20260505192803 58 8 2.0 5.0 0.00 0.24 0.24 96 1001.9
20260505192703 58 7 2.0 5.0 0.00 0.24 0.24 96 1001.9
20260505192603 57 5 2.0 5.0 0.00 0.24 0.24 96 1001.8
20260505192503 57 2 2.0 4.0 0.00 0.24 0.24 97 1001.8
20260505192403 57 3 2.0 4.0 0.00 0.24 0.24 97 1001.8
20260505192305 57 4 2.0 4.0 0.00 0.24 0.24 96 1001.9
20260505192203 57 5 2.0 4.0 0.00 0.24 0.24 96 1001.9
20260505192117 57 7 2.0 4.0 0.00 0.24 0.24 97 1001.9
20260505192103 57 7 2.0 4.0 0.00 0.24 0.24 97 1002.0
20260505192019 57 8 2.0 4.0 0.00 0.24 0.24 96 1002.0
20260505192003 57 8 2.0 4.0 0.00 0.24 0.24 96 1001.9
20260505191703 57 5 2.0 4.0 0.00 0.24 0.24 96 1001.8
20260505191603 57 4 2.0 4.0 0.00 0.24 0.24 96 1002.1
20260505191516 57 3 3.0 4.0 0.00 0.24 0.24 96 1002.1
20260505191403 57 360 3.0 4.0 0.00 0.24 0.24 96 1002.0
20260505191203 57 353 3.0 4.0 0.00 0.24 0.24 96 1002.0
20260505191103 57 350 3.0 4.0 0.00 0.24 0.24 96 1001.9
20260505191003 57 349 3.0 4.0 0.00 0.24 0.24 96 1001.9
20260505190903 57 348 3.0 4.0 0.00 0.24 0.24 96 1002.0
20260505190818 57 347 3.0 4.0 0.00 0.24 0.24 96 1002.0
20260505190803 57 347 3.0 4.0 0.00 0.24 0.24 96 1002.1
20260505190703 57 347 3.0 4.0 0.00 0.24 0.24 96 1002.1
20260505190503 57 345 2.0 4.0 0.00 0.24 0.24 96 1002.2
20260505190403 57 345 2.0 4.0 0.00 0.24 0.24 96 1002.0
20260505190303 57 346 2.0 4.0 0.00 0.24 0.24 96 1001.8
20260505190204 57 348 2.0 4.0 0.00 0.24 0.24 96 1001.8
20260505190103 57 349 2.0 4.0 0.00 0.24 0.24 96 1001.9
20260505190004 57 350 2.0 4.0 0.00 0.24 0.24 95 1002.0
20260505185903 57 350 2.0 4.0 0.00 0.24 0.24 95 1002.0
20260505185803 57 350 2.0 4.0 0.00 0.24 0.24 95 1002.0
20260505185703 57 351 2.0 4.0 0.00 0.24 0.24 95 1002.1
20260505185603 57 352 2.0 4.0 0.00 0.24 0.24 95 1001.9
20260505185503 58 354 2.0 4.0 0.00 0.24 0.24 95 1002.0
20260505185403 58 356 2.0 3.0 0.00 0.24 0.24 95 1002.0
20260505185305 58 358 2.0 3.0 0.00 0.24 0.24 94 1002.0
20260505185203 58 358 1.0 3.0 0.00 0.24 0.24 94 1002.0
20260505185103 58 360 1.0 3.0 0.00 0.24 0.24 94 1001.9
20260505185003 58 360 1.0 3.0 0.00 0.24 0.24 94 1001.8
20260505184903 58 360 1.0 3.0 0.00 0.24 0.24 94 1001.8
20260505184803 58 358 1.0 3.0 0.00 0.24 0.24 94 1002.0
20260505184703 58 355 1.0 3.0 0.00 0.24 0.24 94 1002.0
20260505184603 58 352 1.0 3.0 0.00 0.24 0.24 94 1002.0
20260505184503 58 350 1.0 3.0 0.00 0.24 0.24 94 1001.9
20260505184403 58 350 2.0 3.0 0.00 0.24 0.24 94 1001.9
20260505184303 58 349 2.0 3.0 0.00 0.24 0.24 94 1001.8
20260505184203 59 350 2.0 3.0 0.00 0.24 0.24 94 1001.7
20260505184103 59 349 2.0 3.0 0.00 0.24 0.24 94 1001.7
20260505184003 59 350 2.0 3.0 0.00 0.24 0.24 94 1002.2
20260505183903 59 351 2.0 3.0 0.00 0.24 0.24 94 1001.8
20260505183803 59 353 2.0 3.0 0.00 0.24 0.24 93 1001.8
20260505183719 59 354 2.0 3.0 0.00 0.24 0.24 93 1002.1
20260505183703 59 355 2.0 3.0 0.00 0.24 0.24 93 1002.0
20260505183618 59 356 2.0 3.0 0.00 0.24 0.24 93 1002.0
20260505183603 59 357 2.0 3.0 0.00 0.24 0.24 93 1001.9
20260505183516 59 358 2.0 4.0 0.00 0.24 0.24 93 1001.9
20260505183317 59 359 2.0 4.0 0.00 0.24 0.24 93 1001.8
20260505183203 59 358 2.0 4.0 0.00 0.24 0.24 93 1001.8
20260505183003 59 357 2.0 4.0 0.00 0.24 0.24 93 1002.0
20260505182903 59 358 2.0 4.0 0.00 0.24 0.24 93 1001.9
20260505182803 59 360 2.0 4.0 0.00 0.24 0.24 93 1001.9
20260505182703 59 1 2.0 4.0 0.00 0.24 0.24 93 1001.8
20260505182603 59 4 2.0 4.0 0.00 0.24 0.24 93 1001.8
20260505182518 59 7 2.0 4.0 0.00 0.24 0.24 93 1001.7
20260505182503 59 8 2.0 4.0 0.00 0.24 0.24 93 1001.9
20260505182403 59 12 2.0 4.0 0.00 0.24 0.24 92 1001.8
20260505182218 59 20 2.0 4.0 0.00 0.24 0.24 92 1001.9
20260505182203 59 22 2.0 4.0 0.00 0.24 0.24 92 1001.8
20260505182103 59 26 2.0 4.0 0.00 0.24 0.24 92 1001.8
20260505181903 60 29 2.0 4.0 0.00 0.24 0.24 92 1001.9
20260505181803 60 32 2.0 4.0 0.00 0.24 0.24 92 1001.9
20260505181703 60 34 2.0 4.0 0.00 0.24 0.24 92 1001.8
20260505181603 60 33 2.0 4.0 0.00 0.24 0.24 92 1001.9
20260505181503 60 33 2.0 4.0 0.00 0.24 0.24 91 1001.8
20260505181403 60 32 2.0 4.0 0.00 0.24 0.24 91 1001.8
20260505181303 60 30 2.0 4.0 0.00 0.24 0.24 91 1001.9
20260505181203 60 26 2.0 4.0 0.00 0.24 0.24 91 1001.9
20260505181118 60 24 2.0 4.0 0.00 0.24 0.24 91 1001.9
20260505181104 60 23 2.0 4.0 0.00 0.24 0.24 91 1001.7
20260505181003 60 20 2.0 4.0 0.00 0.24 0.24 91 1001.9
20260505180818 60 18 2.0 4.0 0.00 0.24 0.24 91 1002.0
20260505180803 60 18 2.0 4.0 0.00 0.24 0.24 91 1001.9
20260505180703 60 16 2.0 4.0 0.00 0.24 0.24 91 1001.9
20260505180403 60 19 2.0 4.0 0.00 0.24 0.24 91 1001.8
20260505180303 60 21 2.0 4.0 0.00 0.24 0.24 91 1001.9
20260505180103 60 24 2.0 4.0 0.00 0.24 0.24 91 1001.9
20260505180003 60 25 2.0 4.0 0.00 0.24 0.24 91 1001.8
20260505175903 60 26 2.0 4.0 0.00 0.24 0.24 90 1001.8
20260505175803 60 26 2.0 4.0 0.00 0.24 0.24 90 1001.7
20260505175703 60 28 2.0 4.0 0.00 0.24 0.24 90 1001.8
20260505175506 60 30 2.0 4.0 0.00 0.24 0.24 91 1001.8
20260505175418 61 33 2.0 4.0 0.00 0.24 0.24 91 1001.8
20260505175403 61 32 2.0 4.0 0.00 0.24 0.24 91 1001.8
20260505175305 61 32 2.0 4.0 0.00 0.24 0.24 91 1001.7
20260505175221 61 32 2.0 4.0 0.00 0.24 0.24 91 1001.7
20260505175103 61 30 2.0 4.0 0.00 0.24 0.24 91 1001.7
20260505174903 61 28 2.0 4.0 0.00 0.24 0.24 91 1001.7
20260505174818 61 26 2.0 4.0 0.00 0.24 0.24 91 1001.7
20260505174803 61 25 2.0 4.0 0.00 0.24 0.24 91 1001.7
20260505174703 61 24 2.0 4.0 0.00 0.24 0.24 91 1001.7
20260505174518 61 17 2.0 4.0 0.00 0.24 0.24 91 1001.8
20260505174503 61 17 2.0 4.0 0.00 0.24 0.24 91 1001.7
20260505174403 61 10 2.0 4.0 0.00 0.24 0.24 91 1001.5
20260505174203 61 359 2.0 4.0 0.00 0.24 0.24 91 1001.7
20260505174103 61 356 2.0 4.0 0.00 0.24 0.24 91 1001.6
20260505174003 61 355 2.0 4.0 0.00 0.24 0.24 91 1001.7
20260505173903 61 353 2.0 4.0 0.00 0.24 0.24 91 1001.5
20260505173803 61 353 2.0 4.0 0.00 0.24 0.24 91 1001.5
20260505173719 61 351 2.0 4.0 0.00 0.24 0.24 91 1001.4
20260505173703 61 350 2.0 4.0 0.00 0.24 0.24 91 1001.5
20260505173603 61 350 2.0 4.0 0.00 0.24 0.24 91 1001.6
20260505173418 61 350 2.0 4.0 0.00 0.24 0.24 91 1001.5
20260505173403 61 351 2.0 4.0 0.00 0.24 0.24 91 1001.5
20260505173303 61 355 2.0 4.0 0.00 0.24 0.24 91 1001.6
20260505173103 61 5 2.0 4.0 0.00 0.24 0.24 91 1001.5
20260505173003 61 7 2.0 4.0 0.00 0.24 0.24 91 1001.5
20260505172903 61 8 2.0 4.0 0.00 0.24 0.24 91 1001.6
20260505172803 61 7 2.0 4.0 0.00 0.24 0.24 91 1001.3
20260505172703 61 9 2.0 3.0 0.00 0.24 0.24 91 1001.3
20260505172603 61 13 2.0 3.0 0.00 0.24 0.24 90 1001.5
20260505172517 62 15 2.0 3.0 0.00 0.24 0.24 90 1001.5
20260505172503 62 17 2.0 3.0 0.00 0.24 0.24 90 1001.7
20260505172403 62 21 2.0 3.0 0.00 0.24 0.24 90 1001.6
20260505172203 62 27 2.0 3.0 0.00 0.24 0.24 90 1001.7
20260505172103 62 25 2.0 3.0 0.00 0.24 0.24 90 1001.7
20260505172003 62 25 1.0 4.0 0.00 0.24 0.24 90 1001.7
20260505171903 62 22 2.0 4.0 0.00 0.24 0.24 89 1001.7
20260505171803 62 28 2.0 4.0 0.00 0.24 0.24 89 1001.7
20260505171718 62 31 2.0 4.0 0.00 0.24 0.24 89 1001.7
20260505171703 62 31 2.0 4.0 0.00 0.24 0.24 89 1001.7
20260505171603 62 31 2.0 4.0 0.00 0.24 0.24 89 1001.6
20260505171403 62 26 2.0 5.0 0.00 0.24 0.24 89 1001.4
20260505171317 62 26 2.0 5.0 0.00 0.24 0.24 89 1001.4
20260505171303 62 27 2.0 5.0 0.00 0.24 0.24 89 1001.7
20260505171203 62 24 2.0 5.0 0.00 0.24 0.24 89 1001.5
20260505171003 62 24 2.0 5.0 0.00 0.24 0.24 89 1001.5
20260505170903 62 28 2.0 5.0 0.00 0.24 0.24 89 1001.5
20260505170818 62 29 2.0 5.0 0.00 0.24 0.24 89 1001.5
20260505170803 62 29 2.0 5.0 0.00 0.24 0.24 89 1001.6
20260505170503 62 35 2.0 5.0 0.00 0.24 0.24 89 1001.6
20260505170416 62 37 2.0 5.0 0.00 0.24 0.24 89 1001.5
20260505170403 62 36 2.0 5.0 0.00 0.24 0.24 89 1001.5
20260505170303 62 38 2.0 5.0 0.00 0.24 0.24 89 1001.4
20260505170103 62 41 2.0 6.0 0.00 0.24 0.24 89 1001.5
20260505170003 62 41 2.0 6.0 0.00 0.24 0.24 89 1001.5
20260505165903 62 38 2.0 6.0 0.00 0.24 0.24 89 1001.6
20260505165803 62 36 3.0 6.0 0.00 0.24 0.24 89 1001.6
20260505165703 62 35 3.0 6.0 0.00 0.24 0.24 89 1001.7
20260505165603 62 35 3.0 6.0 0.00 0.24 0.24 89 1001.6
20260505165504 62 32 3.0 6.0 0.00 0.24 0.24 89 1001.4
20260505165403 62 31 3.0 6.0 0.00 0.24 0.24 89 1001.6
20260505165316 62 30 3.0 6.0 0.00 0.24 0.24 89 1001.6
20260505165306 62 29 3.0 6.0 0.00 0.24 0.24 89 1001.4
20260505165203 62 28 3.0 6.0 0.00 0.24 0.24 89 1001.6
20260505165003 62 24 3.0 6.0 0.00 0.24 0.24 89 1001.3
20260505164903 62 23 3.0 5.0 0.00 0.24 0.24 89 1001.5
20260505164803 62 16 2.0 5.0 0.00 0.24 0.24 89 1001.5
20260505164716 62 12 2.0 5.0 0.00 0.24 0.24 89 1001.5
20260505164703 62 10 2.0 5.0 0.00 0.24 0.24 89 1001.5
20260505164619 62 8 3.0 5.0 0.00 0.24 0.24 89 1001.5
20260505164603 62 6 3.0 5.0 0.00 0.24 0.24 89 1001.7
20260505164303 62 353 2.0 5.0 0.00 0.24 0.24 88 1001.8
20260505164203 62 347 2.0 5.0 0.00 0.24 0.24 88 1001.7
20260505164103 62 347 2.0 5.0 0.00 0.24 0.24 88 1001.9
20260505164003 62 345 2.0 5.0 0.00 0.24 0.24 88 1001.7
20260505163903 62 347 2.0 5.0 0.00 0.24 0.24 88 1001.7
20260505163803 62 354 2.0 5.0 0.00 0.24 0.24 88 1001.7
20260505163703 62 355 2.0 5.0 0.00 0.24 0.24 89 1001.7
20260505163603 62 356 2.0 5.0 0.00 0.24 0.24 88 1001.7
20260505163503 63 356 2.0 5.0 0.00 0.24 0.24 88 1001.6
20260505163418 63 355 2.0 5.0 0.00 0.24 0.24 88 1001.6
20260505163403 63 354 2.0 5.0 0.00 0.24 0.24 88 1001.6
20260505163303 63 351 2.0 5.0 0.00 0.24 0.24 87 1001.8
20260505163103 63 350 2.0 5.0 0.00 0.24 0.24 88 1001.7
20260505163003 63 352 2.0 5.0 0.00 0.24 0.24 87 1001.7
20260505162903 63 351 2.0 5.0 0.00 0.24 0.24 87 1001.7
20260505162803 63 354 2.0 5.0 0.00 0.24 0.24 88 1001.9
20260505162716 63 357 2.0 5.0 0.00 0.24 0.24 88 1001.9
20260505162703 63 357 2.0 5.0 0.00 0.24 0.24 88 1002.0
20260505162603 63 1 2.0 6.0 0.00 0.24 0.24 88 1001.9
20260505162403 63 14 2.0 6.0 0.00 0.24 0.24 87 1001.7
20260505162306 63 17 2.0 6.0 0.00 0.24 0.24 88 1001.7
20260505162103 63 16 2.0 6.0 0.00 0.24 0.24 87 1001.8
20260505162003 63 13 2.0 6.0 0.00 0.24 0.24 87 1001.8
20260505161903 63 14 2.0 6.0 0.00 0.24 0.24 88 1001.7
20260505161803 63 11 2.0 6.0 0.00 0.24 0.24 87 1001.8
20260505161703 63 9 3.0 6.0 0.00 0.24 0.24 87 1001.9
20260505161616 63 8 3.0 6.0 0.00 0.24 0.24 87 1001.9
20260505161603 63 9 3.0 6.0 0.00 0.24 0.24 87 1001.9
20260505161503 63 6 2.0 6.0 0.00 0.24 0.24 86 1001.7
20260505161303 63 6 2.0 5.0 0.00 0.24 0.24 88 1001.6
20260505161203 63 11 2.0 5.0 0.01 0.24 0.24 87 1001.8
20260505161104 63 14 2.0 5.0 0.03 0.24 0.24 87 1001.7
20260505161003 63 18 2.0 6.0 0.06 0.24 0.24 86 1001.8
20260505160903 63 22 2.0 6.0 0.11 0.24 0.24 87 1001.8
20260505160803 63 26 3.0 6.0 0.17 0.24 0.24 87 1001.8
20260505160703 63 28 3.0 6.0 0.20 0.24 0.24 87 1001.8
20260505160603 63 26 3.0 6.0 0.20 0.24 0.24 86 1001.8
20260505160503 63 21 3.0 6.0 0.20 0.24 0.24 86 1001.8
20260505160403 63 19 3.0 6.0 0.20 0.24 0.24 86 1001.9
20260505160303 63 15 3.0 6.0 0.20 0.24 0.24 87 1001.8
20260505160203 63 10 3.0 6.0 0.20 0.24 0.24 86 1001.8
20260505160119 63 7 3.0 6.0 0.20 0.24 0.24 86 1001.8